Time,TemperatureF,DewpointF,PressureIn,WindDirection,WindDirectionDegrees,WindSpeedMPH,WindSpeedGustMPH,Humidity,HourlyPrecipIn,Conditions,Clouds,dailyrainin,SoftwareType,DateUTC
2013-01-14 00:00:00,62.8,59.5,30.02,SSW,211,0.0,9.0,89,0.00,,---,0.00,VWS V13.01,2013-01-14 05:00:00,
2013-01-14 00:01:00,62.8,59.5,30.02,SW,221,3.0,3.0,89,0.00,,---,0.00,VWS V13.01,2013-01-14 05:01:00,
2013-01-14 00:02:00,62.8,59.5,30.03,SSW,206,0.0,5.0,89,0.00,,---,0.00,VWS V13.01,2013-01-14 05:02:00,
2013-01-14 00:05:00,62.8,59.5,30.03,SSW,206,3.0,6.0,89,0.00,,---,0.00,VWS V13.01,2013-01-14 05:05:00,
2013-01-14 00:06:00,62.8,59.5,30.03,SW,217,0.0,7.0,89,0.00,,---,0.00,VWS V13.01,2013-01-14 05:06:00,
2013-01-14 00:07:00,62.8,59.5,30.03,SW,217,0.0,7.0,89,0.00,,---,0.00,VWS V13.01,2013-01-14 05:07:00,
2013-01-14 00:11:00,62.8,59.5,30.03,SSW,206,3.0,9.0,89,0.00,,---,0.00,VWS V13.01,2013-01-14 05:11:00,
2013-01-14 00:13:00,62.7,59.4,30.03,SSW,198,4.0,9.0,89,0.00,,---,0.00,VWS V13.01,2013-01-14 05:13:00,
2013-01-14 00:16:00,62.7,59.4,30.03,SW,222,0.0,9.0,89,0.00,,---,0.00,VWS V13.01,2013-01-14 05:16:00,
2013-01-14 00:17:00,62.7,59.4,30.03,SSW,213,4.0,9.0,89,0.00,,---,0.00,VWS V13.01,2013-01-14 05:17:00,
2013-01-14 00:18:00,62.7,59.4,30.03,SW,214,0.0,9.0,89,0.00,,---,0.00,VWS V13.01,2013-01-14 05:18:00,
2013-01-14 00:21:00,62.7,59.4,30.02,South,182,2.0,9.0,89,0.00,,---,0.00,VWS V13.01,2013-01-14 05:21:00,
2013-01-14 00:22:00,62.7,59.4,30.02,South,180,0.0,9.0,89,0.00,,---,0.00,VWS V13.01,2013-01-14 05:22:00,
2013-01-14 00:23:00,62.7,59.7,30.02,South,180,0.0,9.0,90,0.00,,---,0.00,VWS V13.01,2013-01-14 05:23:00,
2013-01-14 00:26:00,62.7,59.7,30.02,SSW,203,0.0,9.0,90,0.00,,---,0.00,VWS V13.01,2013-01-14 05:26:00,
2013-01-14 00:27:00,62.7,59.7,30.02,SSW,203,0.0,9.0,90,0.00,,---,0.00,VWS V13.01,2013-01-14 05:27:00,
2013-01-14 00:28:00,62.7,59.7,30.02,SSW,203,0.0,9.0,90,0.00,,---,0.00,VWS V13.01,2013-01-14 05:28:00,
2013-01-14 00:31:00,62.6,59.6,30.02,SSW,210,0.0,1.0,90,0.00,,---,0.00,VWS V13.01,2013-01-14 05:31:00,
2013-01-14 00:32:00,62.6,59.6,30.02,SSW,211,0.0,1.0,90,0.00,,---,0.00,VWS V13.01,2013-01-14 05:32:00,
2013-01-14 00:33:00,62.6,59.6,30.02,SW,221,2.0,6.0,90,0.00,,---,0.00,VWS V13.01,2013-01-14 05:33:00,
2013-01-14 00:36:00,62.6,59.6,30.02,SW,221,0.0,6.0,90,0.00,,---,0.00,VWS V13.01,2013-01-14 05:36:00,
2013-01-14 00:37:00,62.6,59.6,30.02,SW,217,0.0,6.0,90,0.00,,---,0.00,VWS V13.01,2013-01-14 05:37:00,
2013-01-14 00:38:00,62.6,59.6,30.02,SW,217,0.0,6.0,90,0.00,,---,0.00,VWS V13.01,2013-01-14 05:38:00,
2013-01-14 00:41:00,62.6,59.6,30.02,SSW,199,9.0,9.0,90,0.00,,---,0.00,VWS V13.01,2013-01-14 05:41:00,
2013-01-14 00:42:00,62.6,59.6,30.02,South,173,2.0,9.0,90,0.00,,---,0.00,VWS V13.01,2013-01-14 05:42:00,
2013-01-14 00:43:00,62.5,59.5,30.02,SSW,209,3.0,9.0,90,0.00,,---,0.00,VWS V13.01,2013-01-14 05:43:00,
2013-01-14 00:46:00,62.5,59.5,30.02,SSW,194,0.0,9.0,90,0.00,,---,0.00,VWS V13.01,2013-01-14 05:46:00,
2013-01-14 00:47:00,62.5,59.5,30.02,SSW,194,0.0,9.0,90,0.00,,---,0.00,VWS V13.01,2013-01-14 05:47:00,
2013-01-14 00:48:00,62.5,59.5,30.02,South,190,0.0,9.0,90,0.00,,---,0.00,VWS V13.01,2013-01-14 05:48:00,
2013-01-14 00:51:00,62.4,59.4,30.02,SW,217,4.0,9.0,90,0.00,,---,0.00,VWS V13.01,2013-01-14 05:51:00,
2013-01-14 00:52:00,62.4,59.4,30.02,SW,216,0.0,9.0,90,0.00,,---,0.00,VWS V13.01,2013-01-14 05:52:00,
2013-01-14 00:53:00,62.4,59.4,30.02,South,181,1.0,9.0,90,0.00,,---,0.00,VWS V13.01,2013-01-14 05:53:00,
2013-01-14 00:56:00,62.4,59.4,30.02,SSW,193,0.0,9.0,90,0.00,,---,0.00,VWS V13.01,2013-01-14 05:56:00,
2013-01-14 00:57:00,62.3,59.3,30.02,SSW,204,0.0,9.0,90,0.00,,---,0.00,VWS V13.01,2013-01-14 05:57:00,
2013-01-14 00:58:00,62.3,59.3,30.02,SSW,198,4.0,9.0,90,0.00,,---,0.00,VWS V13.01,2013-01-14 05:58:00,
2013-01-14 01:01:00,62.3,59.3,30.02,SSW,196,0.0,1.0,90,0.00,,---,0.00,VWS V13.01,2013-01-14 06:01:00,
2013-01-14 01:02:00,62.3,59.3,30.02,SSW,207,6.0,6.0,90,0.00,,---,0.00,VWS V13.01,2013-01-14 06:02:00,
2013-01-14 01:03:00,62.3,59.3,30.02,South,191,6.0,6.0,90,0.00,,---,0.00,VWS V13.01,2013-01-14 06:03:00,
2013-01-14 01:06:00,62.3,59.3,30.02,South,191,0.0,6.0,90,0.00,,---,0.00,VWS V13.01,2013-01-14 06:06:00,
2013-01-14 01:07:00,62.3,59.3,30.02,South,190,2.0,6.0,90,0.00,,---,0.00,VWS V13.01,2013-01-14 06:07:00,
2013-01-14 01:08:00,62.2,59.2,30.02,South,190,0.0,6.0,90,0.00,,---,0.00,VWS V13.01,2013-01-14 06:08:00,
2013-01-14 01:11:00,62.2,59.2,30.02,SSW,195,2.0,6.0,90,0.00,,---,0.00,VWS V13.01,2013-01-14 06:11:00,
2013-01-14 01:12:00,62.2,59.2,30.02,SSW,196,0.0,6.0,90,0.00,,---,0.00,VWS V13.01,2013-01-14 06:12:00,
2013-01-14 01:13:00,62.2,59.2,30.02,SSW,196,0.0,6.0,90,0.00,,---,0.00,VWS V13.01,2013-01-14 06:13:00,
2013-01-14 01:16:00,62.2,59.5,30.02,South,180,0.0,6.0,91,0.00,,---,0.00,VWS V13.01,2013-01-14 06:16:00,
2013-01-14 01:18:00,62.1,59.5,30.02,SW,218,4.0,6.0,91,0.00,,---,0.00,VWS V13.01,2013-01-14 06:18:00,
2013-01-14 01:21:00,62.1,59.5,30.02,SSW,207,0.0,10.0,91,0.00,,---,0.00,VWS V13.01,2013-01-14 06:21:00,
2013-01-14 01:23:00,62.1,59.5,30.02,SSW,202,0.0,10.0,91,0.00,,---,0.00,VWS V13.01,2013-01-14 06:23:00,
2013-01-14 01:27:00,62.1,59.5,30.03,SW,215,0.0,12.0,91,0.00,,---,0.00,VWS V13.01,2013-01-14 06:27:00,
2013-01-14 01:28:00,62.1,59.5,30.03,SW,222,0.0,12.0,91,0.00,,---,0.00,VWS V13.01,2013-01-14 06:28:00,
2013-01-14 01:29:00,62.1,59.5,30.03,SSW,211,0.0,12.0,91,0.00,,---,0.00,VWS V13.01,2013-01-14 06:29:00,
2013-01-14 01:32:00,62.1,59.5,30.03,SSW,196,0.0,4.0,91,0.00,,---,0.00,VWS V13.01,2013-01-14 06:32:00,
2013-01-14 01:33:00,62.1,59.5,30.03,SW,221,0.0,4.0,91,0.00,,---,0.00,VWS V13.01,2013-01-14 06:33:00,
2013-01-14 01:34:00,62.1,59.5,30.03,SSW,213,0.0,5.0,91,0.00,,---,0.00,VWS V13.01,2013-01-14 06:34:00,
2013-01-14 01:37:00,62.0,59.3,30.03,SSW,205,5.0,5.0,91,0.00,,---,0.00,VWS V13.01,2013-01-14 06:37:00,
2013-01-14 01:38:00,62.0,59.3,30.03,SW,220,0.0,7.0,91,0.00,,---,0.00,VWS V13.01,2013-01-14 06:38:00,
2013-01-14 01:39:00,62.0,59.3,30.03,SW,219,0.0,7.0,91,0.00,,---,0.00,VWS V13.01,2013-01-14 06:39:00,
2013-01-14 01:42:00,62.0,59.3,30.03,SW,220,1.0,7.0,91,0.00,,---,0.00,VWS V13.01,2013-01-14 06:42:00,
2013-01-14 01:43:00,62.0,59.3,30.03,SSW,210,5.0,7.0,91,0.00,,---,0.00,VWS V13.01,2013-01-14 06:43:00,
2013-01-14 01:44:00,61.9,59.2,30.03,SSW,210,0.0,7.0,91,0.00,,---,0.00,VWS V13.01,2013-01-14 06:44:00,
2013-01-14 01:47:00,61.9,59.2,30.03,SW,220,1.0,7.0,91,0.00,,---,0.00,VWS V13.01,2013-01-14 06:47:00,
2013-01-14 01:48:00,61.9,59.2,30.03,SW,220,0.0,7.0,91,0.00,,---,0.00,VWS V13.01,2013-01-14 06:48:00,
2013-01-14 01:49:00,61.8,59.2,30.03,SW,220,0.0,7.0,91,0.00,,---,0.00,VWS V13.01,2013-01-14 06:49:00,
2013-01-14 01:52:00,61.8,59.2,30.03,SSW,201,0.0,7.0,91,0.00,,---,0.00,VWS V13.01,2013-01-14 06:52:00,
2013-01-14 01:53:00,61.8,59.2,30.03,SSW,201,3.0,7.0,91,0.00,,---,0.00,VWS V13.01,2013-01-14 06:53:00,
2013-01-14 01:54:00,61.7,59.0,30.03,SSW,200,0.0,7.0,91,0.00,,---,0.00,VWS V13.01,2013-01-14 06:54:00,
2013-01-14 01:57:00,61.7,59.0,30.03,SSW,200,0.0,7.0,91,0.00,,---,0.00,VWS V13.01,2013-01-14 06:57:00,
2013-01-14 01:58:00,61.7,59.0,30.03,SSW,200,0.0,7.0,91,0.00,,---,0.00,VWS V13.01,2013-01-14 06:58:00,
2013-01-14 01:59:00,61.6,59.0,30.03,SSW,200,1.0,7.0,91,0.00,,---,0.00,VWS V13.01,2013-01-14 06:59:00,
2013-01-14 02:02:00,61.6,59.0,30.04,SSW,201,0.0,2.0,91,0.00,,---,0.00,VWS V13.01,2013-01-14 07:02:00,
2013-01-14 02:03:00,61.6,59.0,30.04,SSW,203,0.0,4.0,91,0.00,,---,0.00,VWS V13.01,2013-01-14 07:03:00,
2013-01-14 02:04:00,61.6,59.0,30.04,SSW,203,0.0,4.0,91,0.00,,---,0.00,VWS V13.01,2013-01-14 07:04:00,
2013-01-14 02:07:00,61.5,58.8,30.04,SSW,203,0.0,4.0,91,0.00,,---,0.00,VWS V13.01,2013-01-14 07:07:00,
2013-01-14 02:08:00,61.5,58.8,30.04,SSW,203,0.0,4.0,91,0.00,,---,0.00,VWS V13.01,2013-01-14 07:08:00,
2013-01-14 02:09:00,61.5,58.8,30.04,SSW,203,0.0,4.0,91,0.00,,---,0.00,VWS V13.01,2013-01-14 07:09:00,
2013-01-14 02:12:00,61.5,58.8,30.04,SSW,203,0.0,4.0,91,0.00,,---,0.00,VWS V13.01,2013-01-14 07:12:00,
2013-01-14 02:13:00,61.4,58.8,30.04,SSW,203,0.0,4.0,91,0.00,,---,0.00,VWS V13.01,2013-01-14 07:13:00,
2013-01-14 02:14:00,61.4,58.8,30.04,SSW,203,0.0,4.0,91,0.00,,---,0.00,VWS V13.01,2013-01-14 07:14:00,
2013-01-14 02:17:00,61.4,58.8,30.04,SSW,203,0.0,4.0,91,0.00,,---,0.00,VWS V13.01,2013-01-14 07:17:00,
2013-01-14 02:18:00,61.3,58.7,30.04,SSW,203,0.0,4.0,91,0.00,,---,0.00,VWS V13.01,2013-01-14 07:18:00,
2013-01-14 02:19:00,61.3,58.7,30.04,SSW,203,0.0,4.0,91,0.00,,---,0.00,VWS V13.01,2013-01-14 07:19:00,
2013-01-14 02:22:00,61.3,58.7,30.04,SSW,203,0.0,4.0,91,0.00,,---,0.00,VWS V13.01,2013-01-14 07:22:00,
2013-01-14 02:23:00,61.3,58.7,30.04,SSW,203,2.0,4.0,91,0.00,,---,0.00,VWS V13.01,2013-01-14 07:23:00,
2013-01-14 02:24:00,61.3,58.7,30.04,SSW,194,0.0,4.0,91,0.00,,---,0.00,VWS V13.01,2013-01-14 07:24:00,
2013-01-14 02:27:00,61.2,58.9,30.04,SSW,194,0.0,4.0,92,0.00,,---,0.00,VWS V13.01,2013-01-14 07:27:00,
2013-01-14 02:28:00,61.2,58.9,30.04,SSW,194,0.0,4.0,92,0.00,,---,0.00,VWS V13.01,2013-01-14 07:28:00,
2013-01-14 02:29:00,61.2,58.9,30.04,SSW,196,0.0,4.0,92,0.00,,---,0.00,VWS V13.01,2013-01-14 07:29:00,
2013-01-14 02:33:00,61.1,58.8,30.04,South,171,0.0,3.0,92,0.00,,---,0.00,VWS V13.01,2013-01-14 07:33:00,
2013-01-14 02:35:00,61.1,58.8,30.04,SSW,197,2.0,4.0,92,0.00,,---,0.00,VWS V13.01,2013-01-14 07:35:00,
2013-01-14 02:38:00,61.1,58.8,30.04,South,189,2.0,4.0,92,0.00,,---,0.00,VWS V13.01,2013-01-14 07:38:00,
2013-01-14 02:39:00,61.1,58.8,30.04,South,188,0.0,4.0,92,0.00,,---,0.00,VWS V13.01,2013-01-14 07:39:00,
2013-01-14 02:40:00,61.1,58.8,30.04,SW,230,3.0,4.0,92,0.00,,---,0.00,VWS V13.01,2013-01-14 07:40:00,
2013-01-14 02:43:00,61.0,58.7,30.04,SSW,200,0.0,4.0,92,0.00,,---,0.00,VWS V13.01,2013-01-14 07:43:00,
2013-01-14 02:44:00,61.0,58.7,30.04,SSW,200,1.0,4.0,92,0.00,,---,0.00,VWS V13.01,2013-01-14 07:44:00,
2013-01-14 02:45:00,61.0,58.7,30.04,SSW,200,0.0,4.0,92,0.00,,---,0.00,VWS V13.01,2013-01-14 07:45:00,
2013-01-14 02:48:00,61.0,58.7,30.04,SSW,200,0.0,4.0,92,0.00,,---,0.00,VWS V13.01,2013-01-14 07:48:00,
2013-01-14 02:49:00,61.0,58.7,30.04,SSW,200,0.0,4.0,92,0.00,,---,0.00,VWS V13.01,2013-01-14 07:49:00,
2013-01-14 02:50:00,60.9,58.6,30.04,SSW,200,0.0,4.0,92,0.00,,---,0.00,VWS V13.01,2013-01-14 07:50:00,
2013-01-14 02:53:00,60.9,58.6,30.04,SSW,200,0.0,4.0,92,0.00,,---,0.00,VWS V13.01,2013-01-14 07:53:00,
2013-01-14 02:54:00,60.9,58.6,30.04,SSW,200,0.0,4.0,92,0.00,,---,0.00,VWS V13.01,2013-01-14 07:54:00,
2013-01-14 02:55:00,60.9,58.6,30.04,SSW,200,0.0,4.0,92,0.00,,---,0.00,VWS V13.01,2013-01-14 07:55:00,
2013-01-14 02:58:00,60.9,58.6,30.04,SSW,200,0.0,4.0,92,0.00,,---,0.00,VWS V13.01,2013-01-14 07:58:00,
2013-01-14 02:59:00,60.9,58.9,30.04,SSW,200,1.0,4.0,93,0.00,,---,0.00,VWS V13.01,2013-01-14 07:59:00,
2013-01-14 03:00:00,60.9,58.6,30.04,SSW,200,0.0,4.0,92,0.00,,---,0.00,VWS V13.01,2013-01-14 08:00:00,
2013-01-14 03:03:00,60.9,58.6,30.04,SSW,200,0.0,4.0,92,0.00,,---,0.00,VWS V13.01,2013-01-14 08:03:00,
2013-01-14 03:04:00,60.9,58.6,30.04,SSW,200,0.0,4.0,92,0.00,,---,0.00,VWS V13.01,2013-01-14 08:04:00,
2013-01-14 03:05:00,60.9,58.6,30.04,SSW,200,0.0,4.0,92,0.00,,---,0.00,VWS V13.01,2013-01-14 08:05:00,
2013-01-14 03:09:00,60.8,58.5,30.04,SSW,201,0.0,4.0,92,0.00,,---,0.00,VWS V13.01,2013-01-14 08:09:00,
2013-01-14 03:10:00,60.8,58.5,30.04,SSW,201,0.0,4.0,92,0.00,,---,0.00,VWS V13.01,2013-01-14 08:10:00,
2013-01-14 03:14:00,60.8,58.8,30.04,SSW,201,0.0,4.0,93,0.00,,---,0.00,VWS V13.01,2013-01-14 08:14:00,
2013-01-14 03:15:00,60.8,58.8,30.04,SSW,201,1.0,4.0,93,0.00,,---,0.00,VWS V13.01,2013-01-14 08:15:00,
2013-01-14 03:19:00,60.8,58.8,30.04,SW,215,0.0,5.0,93,0.00,,---,0.00,VWS V13.01,2013-01-14 08:19:00,
2013-01-14 03:20:00,60.8,58.8,30.04,SW,215,0.0,5.0,93,0.00,,---,0.00,VWS V13.01,2013-01-14 08:20:00,
2013-01-14 03:21:00,60.8,58.8,30.04,SW,215,0.0,5.0,93,0.00,,---,0.00,VWS V13.01,2013-01-14 08:21:00,
2013-01-14 03:24:00,60.8,58.8,30.04,SW,215,0.0,5.0,93,0.00,,---,0.00,VWS V13.01,2013-01-14 08:24:00,
2013-01-14 03:25:00,60.8,58.8,30.04,SSW,192,1.0,5.0,93,0.00,,---,0.00,VWS V13.01,2013-01-14 08:25:00,
2013-01-14 03:26:00,60.7,58.7,30.04,SSW,207,0.0,5.0,93,0.00,,---,0.00,VWS V13.01,2013-01-14 08:26:00,
2013-01-14 03:29:00,60.7,58.7,30.04,SSW,207,0.0,5.0,93,0.00,,---,0.00,VWS V13.01,2013-01-14 08:29:00,
2013-01-14 03:30:00,60.7,58.7,30.04,SSW,207,0.0,5.0,93,0.00,,---,0.00,VWS V13.01,2013-01-14 08:30:00,
2013-01-14 03:31:00,60.8,58.8,30.04,SSW,207,1.0,1.0,93,0.00,,---,0.00,VWS V13.01,2013-01-14 08:31:00,
2013-01-14 03:34:00,60.8,58.8,30.04,SSW,210,0.0,4.0,93,0.00,,---,0.00,VWS V13.01,2013-01-14 08:34:00,
2013-01-14 03:35:00,60.8,58.8,30.04,SSW,210,0.0,4.0,93,0.00,,---,0.00,VWS V13.01,2013-01-14 08:35:00,
2013-01-14 03:36:00,60.8,58.8,30.04,SSW,209,0.0,4.0,93,0.00,,---,0.00,VWS V13.01,2013-01-14 08:36:00,
2013-01-14 03:39:00,60.8,58.8,30.03,SSW,207,0.0,6.0,93,0.00,,---,0.00,VWS V13.01,2013-01-14 08:39:00,
2013-01-14 03:40:00,60.8,58.8,30.03,SSW,207,2.0,6.0,93,0.00,,---,0.00,VWS V13.01,2013-01-14 08:40:00,
2013-01-14 03:41:00,60.8,59.1,30.03,SSW,200,0.0,6.0,94,0.00,,---,0.00,VWS V13.01,2013-01-14 08:41:00,
2013-01-14 03:45:00,60.8,59.1,30.03,South,188,1.0,6.0,94,0.00,,---,0.00,VWS V13.01,2013-01-14 08:45:00,
2013-01-14 03:46:00,60.9,59.2,30.03,South,188,0.0,6.0,94,0.00,,---,0.00,VWS V13.01,2013-01-14 08:46:00,
2013-01-14 03:50:00,60.9,59.2,30.03,SSE,164,0.0,6.0,94,0.00,,---,0.00,VWS V13.01,2013-01-14 08:50:00,
2013-01-14 03:51:00,60.8,59.1,30.03,SSE,164,0.0,6.0,94,0.00,,---,0.00,VWS V13.01,2013-01-14 08:51:00,
2013-01-14 03:55:00,60.9,59.2,30.03,South,171,1.0,6.0,94,0.00,,---,0.00,VWS V13.01,2013-01-14 08:55:00,
2013-01-14 03:56:00,60.9,59.2,30.03,South,171,0.0,6.0,94,0.00,,---,0.00,VWS V13.01,2013-01-14 08:56:00,
2013-01-14 04:00:00,60.9,59.2,30.03,South,173,0.0,6.0,94,0.00,,---,0.00,VWS V13.01,2013-01-14 09:00:00,
2013-01-14 04:01:00,60.9,59.2,30.03,South,172,0.0,2.0,94,0.00,,---,0.00,VWS V13.01,2013-01-14 09:01:00,
2013-01-14 04:02:00,60.9,59.2,30.03,South,173,1.0,2.0,94,0.00,,---,0.00,VWS V13.01,2013-01-14 09:02:00,
2013-01-14 04:05:00,60.9,59.2,30.03,South,177,0.0,4.0,94,0.00,,---,0.00,VWS V13.01,2013-01-14 09:05:00,
2013-01-14 04:07:00,60.9,59.2,30.02,South,179,2.0,4.0,94,0.00,,---,0.00,VWS V13.01,2013-01-14 09:07:00,
2013-01-14 04:10:00,60.9,59.2,30.03,SSW,196,0.0,4.0,94,0.00,,---,0.00,VWS V13.01,2013-01-14 09:10:00,
2013-01-14 04:12:00,60.9,59.2,30.02,SSW,199,0.0,4.0,94,0.00,,---,0.00,VWS V13.01,2013-01-14 09:12:00,
2013-01-14 04:15:00,60.9,59.2,30.02,SSW,206,0.0,4.0,94,0.00,,---,0.00,VWS V13.01,2013-01-14 09:15:00,
2013-01-14 04:17:00,60.9,59.2,30.02,SSW,207,0.0,4.0,94,0.00,,---,0.00,VWS V13.01,2013-01-14 09:17:00,
2013-01-14 04:20:00,61.0,59.3,30.02,SSW,206,0.0,4.0,94,0.00,,---,0.00,VWS V13.01,2013-01-14 09:20:00,
2013-01-14 04:22:00,61.0,59.3,30.02,SSW,207,1.0,4.0,94,0.00,,---,0.00,VWS V13.01,2013-01-14 09:22:00,
2013-01-14 04:25:00,61.0,59.3,30.02,SSW,207,0.0,4.0,94,0.00,,---,0.00,VWS V13.01,2013-01-14 09:25:00,
2013-01-14 04:26:00,61.0,59.3,30.02,SSW,207,0.0,4.0,94,0.00,,---,0.00,VWS V13.01,2013-01-14 09:26:00,
2013-01-14 04:27:00,61.0,59.3,30.02,SSW,207,0.0,4.0,94,0.00,,---,0.00,VWS V13.01,2013-01-14 09:27:00,
2013-01-14 04:30:00,61.0,59.3,30.02,SSW,207,0.0,4.0,94,0.00,,---,0.00,VWS V13.01,2013-01-14 09:30:00,
2013-01-14 04:31:00,61.0,59.3,30.02,SSW,207,0.0,0.0,94,0.00,,---,0.00,VWS V13.01,2013-01-14 09:31:00,
2013-01-14 04:32:00,61.0,59.3,30.02,SSW,207,0.0,2.0,94,0.00,,---,0.00,VWS V13.01,2013-01-14 09:32:00,
2013-01-14 04:36:00,61.0,59.3,30.02,SSW,206,0.0,4.0,94,0.00,,---,0.00,VWS V13.01,2013-01-14 09:36:00,
2013-01-14 04:37:00,61.0,59.3,30.02,SSW,209,3.0,4.0,94,0.00,,---,0.00,VWS V13.01,2013-01-14 09:37:00,
2013-01-14 04:41:00,61.1,59.4,30.02,SW,214,0.0,4.0,94,0.00,,---,0.00,VWS V13.01,2013-01-14 09:41:00,
2013-01-14 04:42:00,61.1,59.4,30.02,SW,219,4.0,4.0,94,0.00,,---,0.00,VWS V13.01,2013-01-14 09:42:00,
2013-01-14 04:46:00,61.1,59.4,30.02,SW,221,0.0,4.0,94,0.00,,---,0.00,VWS V13.01,2013-01-14 09:46:00,
2013-01-14 04:47:00,61.1,59.4,30.02,SW,221,0.0,4.0,94,0.00,,---,0.00,VWS V13.01,2013-01-14 09:47:00,
2013-01-14 04:48:00,61.1,59.4,30.02,SW,219,0.0,4.0,94,0.00,,---,0.00,VWS V13.01,2013-01-14 09:48:00,
2013-01-14 04:51:00,61.1,59.4,30.02,SW,224,1.0,5.0,94,0.00,,---,0.00,VWS V13.01,2013-01-14 09:51:00,
2013-01-14 04:52:00,61.1,59.4,30.02,SW,223,0.0,5.0,94,0.00,,---,0.00,VWS V13.01,2013-01-14 09:52:00,
2013-01-14 04:53:00,61.1,59.4,30.02,SW,223,0.0,5.0,94,0.00,,---,0.00,VWS V13.01,2013-01-14 09:53:00,
2013-01-14 04:56:00,61.2,59.5,30.03,SW,224,0.0,5.0,94,0.00,,---,0.00,VWS V13.01,2013-01-14 09:56:00,
2013-01-14 04:57:00,61.1,59.4,30.02,SW,224,0.0,5.0,94,0.00,,---,0.00,VWS V13.01,2013-01-14 09:57:00,
2013-01-14 04:58:00,61.1,59.4,30.02,SW,223,0.0,5.0,94,0.00,,---,0.00,VWS V13.01,2013-01-14 09:58:00,
2013-01-14 05:01:00,61.2,59.5,30.02,SW,223,0.0,0.0,94,0.00,,---,0.00,VWS V13.01,2013-01-14 10:01:00,
2013-01-14 05:02:00,61.1,59.4,30.02,SW,223,0.0,0.0,94,0.00,,---,0.00,VWS V13.01,2013-01-14 10:02:00,
2013-01-14 05:03:00,61.1,59.4,30.02,SW,223,1.0,2.0,94,0.00,,---,0.00,VWS V13.01,2013-01-14 10:03:00,
2013-01-14 05:06:00,61.2,59.5,30.02,South,191,0.0,7.0,94,0.00,,---,0.00,VWS V13.01,2013-01-14 10:06:00,
2013-01-14 05:07:00,61.2,59.5,30.02,SSW,205,5.0,7.0,94,0.00,,---,0.00,VWS V13.01,2013-01-14 10:07:00,
2013-01-14 05:08:00,61.2,59.5,30.02,SSW,203,0.0,7.0,94,0.00,,---,0.00,VWS V13.01,2013-01-14 10:08:00,
2013-01-14 05:11:00,61.2,59.5,30.02,SSW,203,0.0,7.0,94,0.00,,---,0.00,VWS V13.01,2013-01-14 10:11:00,
2013-01-14 05:12:00,61.2,59.5,30.02,SSW,203,0.0,7.0,94,0.00,,---,0.00,VWS V13.01,2013-01-14 10:12:00,
2013-01-14 05:13:00,61.2,59.5,30.02,SSW,203,0.0,7.0,94,0.00,,---,0.00,VWS V13.01,2013-01-14 10:13:00,
2013-01-14 05:16:00,61.2,59.5,30.02,SSE,167,4.0,7.0,94,0.00,,---,0.00,VWS V13.01,2013-01-14 10:16:00,
2013-01-14 05:17:00,61.2,59.5,30.02,SSE,167,0.0,7.0,94,0.00,,---,0.00,VWS V13.01,2013-01-14 10:17:00,
2013-01-14 05:18:00,61.2,59.5,30.02,South,173,0.0,7.0,94,0.00,,---,0.00,VWS V13.01,2013-01-14 10:18:00,
2013-01-14 05:21:00,61.2,59.5,30.02,SSW,207,2.0,7.0,94,0.00,,---,0.00,VWS V13.01,2013-01-14 10:21:00,
2013-01-14 05:22:00,61.2,59.5,30.02,SW,227,0.0,7.0,94,0.00,,---,0.00,VWS V13.01,2013-01-14 10:22:00,
2013-01-14 05:24:00,61.2,59.5,30.02,SW,227,0.0,7.0,94,0.00,,---,0.00,VWS V13.01,2013-01-14 10:24:00,
2013-01-14 05:26:00,61.2,59.5,30.02,SW,227,0.0,7.0,94,0.00,,---,0.00,VWS V13.01,2013-01-14 10:26:00,
2013-01-14 05:27:00,61.2,59.5,30.02,SW,227,0.0,7.0,94,0.00,,---,0.00,VWS V13.01,2013-01-14 10:27:00,
2013-01-14 05:29:00,61.2,59.5,30.02,SW,227,0.0,7.0,94,0.00,,---,0.00,VWS V13.01,2013-01-14 10:29:00,
2013-01-14 05:31:00,61.2,59.5,30.02,SW,227,0.0,0.0,94,0.00,,---,0.00,VWS V13.01,2013-01-14 10:31:00,
2013-01-14 05:32:00,61.2,59.5,30.01,SW,227,0.0,0.0,94,0.00,,---,0.00,VWS V13.01,2013-01-14 10:32:00,
2013-01-14 05:33:00,61.3,59.6,30.02,SW,227,0.0,0.0,94,0.00,,---,0.00,VWS V13.01,2013-01-14 10:33:00,
2013-01-14 05:34:00,61.3,59.6,30.01,SW,227,0.0,1.0,94,0.00,,---,0.00,VWS V13.01,2013-01-14 10:34:00,
2013-01-14 05:36:00,61.3,59.6,30.01,SW,225,0.0,4.0,94,0.00,,---,0.00,VWS V13.01,2013-01-14 10:36:00,
2013-01-14 05:37:00,61.2,59.5,30.01,SW,225,0.0,4.0,94,0.00,,---,0.00,VWS V13.01,2013-01-14 10:37:00,
2013-01-14 05:38:00,61.3,59.6,30.01,SW,225,0.0,4.0,94,0.00,,---,0.00,VWS V13.01,2013-01-14 10:38:00,
2013-01-14 05:39:00,61.3,59.6,30.02,SW,225,0.0,4.0,94,0.00,,---,0.00,VWS V13.01,2013-01-14 10:39:00,
2013-01-14 05:41:00,61.2,59.5,30.02,SW,225,0.0,4.0,94,0.00,,---,0.00,VWS V13.01,2013-01-14 10:41:00,
2013-01-14 05:42:00,61.2,59.5,30.02,SW,225,0.0,4.0,94,0.00,,---,0.00,VWS V13.01,2013-01-14 10:42:00,
2013-01-14 05:43:00,61.3,59.6,30.02,SW,225,0.0,4.0,94,0.00,,---,0.00,VWS V13.01,2013-01-14 10:43:00,
2013-01-14 05:44:00,61.2,59.5,30.02,SW,225,0.0,4.0,94,0.00,,---,0.00,VWS V13.01,2013-01-14 10:44:00,
2013-01-14 05:46:00,61.3,59.6,30.02,SW,225,0.0,4.0,94,0.00,,---,0.00,VWS V13.01,2013-01-14 10:46:00,
2013-01-14 05:47:00,61.3,59.6,30.01,SW,225,0.0,4.0,94,0.00,,---,0.00,VWS V13.01,2013-01-14 10:47:00,
2013-01-14 05:48:00,61.2,59.5,30.01,SW,225,2.0,4.0,94,0.00,,---,0.00,VWS V13.01,2013-01-14 10:48:00,
2013-01-14 05:49:00,61.3,59.6,30.01,SW,225,0.0,4.0,94,0.00,,---,0.00,VWS V13.01,2013-01-14 10:49:00,
2013-01-14 05:51:00,61.2,59.5,30.01,SW,225,2.0,4.0,94,0.00,,---,0.00,VWS V13.01,2013-01-14 10:51:00,
2013-01-14 05:52:00,61.3,59.6,30.01,SW,225,0.0,4.0,94,0.00,,---,0.00,VWS V13.01,2013-01-14 10:52:00,
2013-01-14 05:53:00,61.3,59.6,30.01,SW,225,0.0,4.0,94,0.00,,---,0.00,VWS V13.01,2013-01-14 10:53:00,
2013-01-14 05:54:00,61.3,59.6,30.01,SW,225,0.0,4.0,94,0.00,,---,0.00,VWS V13.01,2013-01-14 10:54:00,
2013-01-14 05:56:00,61.3,59.6,30.01,SW,225,0.0,4.0,94,0.00,,---,0.00,VWS V13.01,2013-01-14 10:56:00,
2013-01-14 05:57:00,61.3,59.6,30.01,South,171,5.0,5.0,94,0.00,,---,0.00,VWS V13.01,2013-01-14 10:57:00,
2013-01-14 05:58:00,61.2,59.5,30.01,South,184,0.0,6.0,94,0.00,,---,0.00,VWS V13.01,2013-01-14 10:58:00,
2013-01-14 05:59:00,61.3,59.6,30.01,South,173,3.0,6.0,94,0.00,,---,0.00,VWS V13.01,2013-01-14 10:59:00,
2013-01-14 06:02:00,61.3,59.6,30.01,South,178,0.0,1.0,94,0.00,,---,0.00,VWS V13.01,2013-01-14 11:02:00,
2013-01-14 06:03:00,61.3,59.6,30.01,South,184,0.0,4.0,94,0.00,,---,0.00,VWS V13.01,2013-01-14 11:03:00,
2013-01-14 06:05:00,61.3,59.6,30.02,South,187,3.0,4.0,94,0.00,,---,0.00,VWS V13.01,2013-01-14 11:05:00,
2013-01-14 06:07:00,61.3,59.6,30.02,South,188,0.0,4.0,94,0.00,,---,0.00,VWS V13.01,2013-01-14 11:07:00,
2013-01-14 06:08:00,61.3,59.6,30.02,South,189,0.0,4.0,94,0.00,,---,0.00,VWS V13.01,2013-01-14 11:08:00,
2013-01-14 06:10:00,61.3,59.6,30.02,South,189,0.0,4.0,94,0.00,,---,0.00,VWS V13.01,2013-01-14 11:10:00,
2013-01-14 06:12:00,61.3,59.6,30.02,South,188,0.0,4.0,94,0.00,,---,0.00,VWS V13.01,2013-01-14 11:12:00,
2013-01-14 06:13:00,61.3,59.6,30.02,South,186,3.0,6.0,94,0.00,,---,0.00,VWS V13.01,2013-01-14 11:13:00,
2013-01-14 06:15:00,61.3,59.6,30.02,South,183,0.0,6.0,94,0.01,,---,0.01,VWS V13.01,2013-01-14 11:15:00,
2013-01-14 06:17:00,61.3,59.6,30.02,SSW,212,0.0,6.0,94,0.01,,---,0.01,VWS V13.01,2013-01-14 11:17:00,
2013-01-14 06:18:00,61.3,59.6,30.02,SSW,212,0.0,6.0,94,0.01,,---,0.01,VWS V13.01,2013-01-14 11:18:00,
2013-01-14 06:20:00,61.2,59.5,30.02,SSW,202,0.0,6.0,94,0.01,,---,0.01,VWS V13.01,2013-01-14 11:20:00,
2013-01-14 06:22:00,61.3,59.6,30.02,SSE,167,2.0,6.0,94,0.01,,---,0.01,VWS V13.01,2013-01-14 11:22:00,
2013-01-14 06:23:00,61.3,59.6,30.02,SSW,207,1.0,6.0,94,0.01,,---,0.01,VWS V13.01,2013-01-14 11:23:00,
2013-01-14 06:24:00,61.3,59.6,30.02,SSW,199,0.0,6.0,94,0.01,,---,0.01,VWS V13.01,2013-01-14 11:24:00,
2013-01-14 06:25:00,61.3,59.6,30.02,SSW,199,0.0,6.0,94,0.01,,---,0.01,VWS V13.01,2013-01-14 11:25:00,
2013-01-14 06:27:00,61.3,59.6,30.02,SSW,196,0.0,6.0,94,0.01,,---,0.01,VWS V13.01,2013-01-14 11:27:00,
2013-01-14 06:28:00,61.3,59.6,30.02,SSW,196,0.0,6.0,94,0.01,,---,0.01,VWS V13.01,2013-01-14 11:28:00,
2013-01-14 06:29:00,61.3,59.6,30.02,SSW,196,0.0,6.0,94,0.01,,---,0.01,VWS V13.01,2013-01-14 11:29:00,
2013-01-14 06:30:00,61.3,59.6,30.02,SSW,196,0.0,6.0,94,0.01,,---,0.01,VWS V13.01,2013-01-14 11:30:00,
2013-01-14 06:32:00,61.3,59.6,30.02,SSW,196,0.0,1.0,94,0.01,,---,0.01,VWS V13.01,2013-01-14 11:32:00,
2013-01-14 06:33:00,61.3,59.6,30.02,SSW,196,0.0,1.0,94,0.01,,---,0.01,VWS V13.01,2013-01-14 11:33:00,
2013-01-14 06:34:00,61.3,59.6,30.02,SSW,196,4.0,5.0,94,0.01,,---,0.01,VWS V13.01,2013-01-14 11:34:00,
2013-01-14 06:36:00,61.2,59.5,30.02,SSW,196,0.0,5.0,94,0.01,,---,0.01,VWS V13.01,2013-01-14 11:36:00,
2013-01-14 06:37:00,61.3,59.6,30.02,SSW,196,0.0,5.0,94,0.01,,---,0.01,VWS V13.01,2013-01-14 11:37:00,
2013-01-14 06:38:00,61.2,59.5,30.02,SSW,196,2.0,5.0,94,0.01,,---,0.01,VWS V13.01,2013-01-14 11:38:00,
2013-01-14 06:39:00,61.2,59.5,30.02,SSW,195,0.0,5.0,94,0.01,,---,0.01,VWS V13.01,2013-01-14 11:39:00,
2013-01-14 06:41:00,61.2,59.5,30.02,SSW,196,3.0,5.0,94,0.01,,---,0.01,VWS V13.01,2013-01-14 11:41:00,
2013-01-14 06:43:00,61.2,59.5,30.02,SSW,196,0.0,5.0,94,0.01,,---,0.01,VWS V13.01,2013-01-14 11:43:00,
2013-01-14 06:44:00,61.2,59.5,30.03,SSW,195,0.0,5.0,94,0.01,,---,0.01,VWS V13.01,2013-01-14 11:44:00,
2013-01-14 06:46:00,61.2,59.5,30.03,SSW,195,0.0,5.0,94,0.01,,---,0.01,VWS V13.01,2013-01-14 11:46:00,
2013-01-14 06:48:00,61.2,59.5,30.03,SSW,195,4.0,5.0,94,0.01,,---,0.01,VWS V13.01,2013-01-14 11:48:00,
2013-01-14 06:49:00,61.2,59.5,30.03,SSW,196,0.0,5.0,94,0.01,,---,0.01,VWS V13.01,2013-01-14 11:49:00,
2013-01-14 06:52:00,61.1,59.4,30.03,SSW,196,0.0,5.0,94,0.01,,---,0.01,VWS V13.01,2013-01-14 11:52:00,
2013-01-14 06:53:00,61.1,59.4,30.03,SSW,196,3.0,5.0,94,0.01,,---,0.01,VWS V13.01,2013-01-14 11:53:00,
2013-01-14 06:54:00,61.1,59.4,30.03,SSW,196,0.0,5.0,94,0.01,,---,0.01,VWS V13.01,2013-01-14 11:54:00,
2013-01-14 06:57:00,61.1,59.4,30.03,SSW,196,0.0,5.0,94,0.01,,---,0.01,VWS V13.01,2013-01-14 11:57:00,
2013-01-14 06:58:00,61.1,59.4,30.03,SSW,196,0.0,5.0,94,0.01,,---,0.01,VWS V13.01,2013-01-14 11:58:00,
2013-01-14 06:59:00,61.1,59.4,30.03,SSW,196,3.0,5.0,94,0.01,,---,0.01,VWS V13.01,2013-01-14 11:59:00,
2013-01-14 07:02:00,61.1,59.4,30.03,SSW,196,4.0,4.0,94,0.01,,---,0.01,VWS V13.01,2013-01-14 12:02:00,
2013-01-14 07:03:00,61.1,59.4,30.03,SSW,196,0.0,5.0,94,0.01,,---,0.01,VWS V13.01,2013-01-14 12:03:00,
2013-01-14 07:04:00,61.1,59.4,30.03,SSW,196,0.0,5.0,94,0.01,,---,0.01,VWS V13.01,2013-01-14 12:04:00,
2013-01-14 07:07:00,61.0,59.6,30.03,SSW,198,0.0,5.0,95,0.01,,---,0.01,VWS V13.01,2013-01-14 12:07:00,
2013-01-14 07:08:00,61.0,59.6,30.03,SSW,198,0.0,5.0,95,0.01,,---,0.01,VWS V13.01,2013-01-14 12:08:00,
2013-01-14 07:09:00,61.0,59.6,30.03,SSW,198,0.0,5.0,95,0.01,,---,0.01,VWS V13.01,2013-01-14 12:09:00,
2013-01-14 07:12:00,61.0,59.6,30.03,SSW,198,0.0,5.0,95,0.01,,---,0.01,VWS V13.01,2013-01-14 12:12:00,
2013-01-14 07:13:00,61.0,59.6,30.03,SSW,198,0.0,5.0,95,0.01,,---,0.01,VWS V13.01,2013-01-14 12:13:00,
2013-01-14 07:14:00,61.0,59.6,30.03,SSW,198,0.0,5.0,95,0.01,,---,0.01,VWS V13.01,2013-01-14 12:14:00,
2013-01-14 07:17:00,60.9,59.5,30.03,SSW,198,0.0,5.0,95,0.01,,---,0.01,VWS V13.01,2013-01-14 12:17:00,
2013-01-14 07:18:00,60.9,59.5,30.03,SSW,197,1.0,5.0,95,0.01,,---,0.01,VWS V13.01,2013-01-14 12:18:00,
2013-01-14 07:19:00,60.9,59.5,30.03,SSW,196,0.0,5.0,95,0.01,,---,0.01,VWS V13.01,2013-01-14 12:19:00,
2013-01-14 07:23:00,60.9,59.5,30.04,SSW,197,0.0,5.0,95,0.01,,---,0.01,VWS V13.01,2013-01-14 12:23:00,
2013-01-14 07:24:00,60.9,59.5,30.04,SSW,196,0.0,5.0,95,0.01,,---,0.01,VWS V13.01,2013-01-14 12:24:00,
2013-01-14 07:28:00,60.8,59.4,30.04,SSW,196,0.0,5.0,95,0.01,,---,0.01,VWS V13.01,2013-01-14 12:28:00,
2013-01-14 07:29:00,60.8,59.4,30.04,SSW,196,0.0,5.0,95,0.01,,---,0.01,VWS V13.01,2013-01-14 12:29:00,
2013-01-14 07:33:00,60.8,59.4,30.04,SSW,197,0.0,1.0,95,0.00,,---,0.01,VWS V13.01,2013-01-14 12:33:00,
2013-01-14 07:34:00,60.8,59.1,30.04,SSW,197,0.0,1.0,94,0.00,,---,0.01,VWS V13.01,2013-01-14 12:34:00,
2013-01-14 07:38:00,60.7,59.3,30.04,SSW,197,0.0,3.0,95,0.00,,---,0.01,VWS V13.01,2013-01-14 12:38:00,
2013-01-14 07:39:00,60.7,59.3,30.04,SSW,196,2.0,5.0,95,0.00,,---,0.01,VWS V13.01,2013-01-14 12:39:00,
2013-01-14 07:43:00,60.7,59.3,30.04,SSW,197,0.0,5.0,95,0.00,,---,0.01,VWS V13.01,2013-01-14 12:43:00,
2013-01-14 07:44:00,60.7,59.3,30.04,SSW,197,0.0,5.0,95,0.00,,---,0.01,VWS V13.01,2013-01-14 12:44:00,
2013-01-14 07:48:00,60.6,59.2,30.04,SSW,197,0.0,5.0,95,0.00,,---,0.01,VWS V13.01,2013-01-14 12:48:00,
2013-01-14 07:49:00,60.6,59.2,30.04,SSW,196,0.0,5.0,95,0.00,,---,0.01,VWS V13.01,2013-01-14 12:49:00,
2013-01-14 07:53:00,60.6,59.2,30.04,SSW,197,1.0,5.0,95,0.00,,---,0.01,VWS V13.01,2013-01-14 12:53:00,
2013-01-14 07:54:00,60.6,59.2,30.04,SSW,196,0.0,5.0,95,0.00,,---,0.01,VWS V13.01,2013-01-14 12:54:00,
2013-01-14 07:55:00,60.6,59.2,30.04,SSW,196,0.0,5.0,95,0.00,,---,0.01,VWS V13.01,2013-01-14 12:55:00,
2013-01-14 07:58:00,60.6,59.2,30.05,SSW,196,0.0,5.0,95,0.00,,---,0.01,VWS V13.01,2013-01-14 12:58:00,
2013-01-14 07:59:00,60.5,59.1,30.05,SSW,196,0.0,5.0,95,0.00,,---,0.01,VWS V13.01,2013-01-14 12:59:00,
2013-01-14 08:00:00,60.5,59.1,30.05,SSW,196,1.0,5.0,95,0.00,,---,0.01,VWS V13.01,2013-01-14 13:00:00,
2013-01-14 08:03:00,60.5,59.1,30.05,SSW,197,1.0,3.0,95,0.00,,---,0.01,VWS V13.01,2013-01-14 13:03:00,
2013-01-14 08:05:00,60.5,59.1,30.05,SSW,198,0.0,5.0,95,0.00,,---,0.01,VWS V13.01,2013-01-14 13:05:00,
2013-01-14 08:08:00,60.5,59.1,30.05,SSW,198,0.0,5.0,95,0.00,,---,0.01,VWS V13.01,2013-01-14 13:08:00,
2013-01-14 08:10:00,60.5,59.1,30.05,SSW,198,3.0,5.0,95,0.00,,---,0.01,VWS V13.01,2013-01-14 13:10:00,
2013-01-14 08:13:00,60.5,59.1,30.05,SSW,198,1.0,5.0,95,0.00,,---,0.01,VWS V13.01,2013-01-14 13:13:00,
2013-01-14 08:15:00,60.5,59.1,30.05,SSW,198,5.0,6.0,95,0.00,,---,0.01,VWS V13.01,2013-01-14 13:15:00,
2013-01-14 08:18:00,60.5,59.1,30.05,SSW,198,0.0,6.0,95,0.00,,---,0.01,VWS V13.01,2013-01-14 13:18:00,
2013-01-14 08:20:00,60.5,59.1,30.05,SSW,198,0.0,6.0,95,0.00,,---,0.01,VWS V13.01,2013-01-14 13:20:00,
2013-01-14 08:21:00,60.5,59.1,30.05,SSW,199,0.0,6.0,95,0.00,,---,0.01,VWS V13.01,2013-01-14 13:21:00,
2013-01-14 08:23:00,60.5,59.1,30.06,SSW,200,0.0,6.0,95,0.00,,---,0.01,VWS V13.01,2013-01-14 13:23:00,
2013-01-14 08:25:00,60.5,59.1,30.06,SSW,202,0.0,6.0,95,0.00,,---,0.01,VWS V13.01,2013-01-14 13:25:00,
2013-01-14 08:26:00,60.5,59.1,30.06,SSW,202,0.0,6.0,95,0.00,,---,0.01,VWS V13.01,2013-01-14 13:26:00,
2013-01-14 08:29:00,60.5,59.1,30.06,SSW,206,1.0,6.0,95,0.00,,---,0.01,VWS V13.01,2013-01-14 13:29:00,
2013-01-14 08:30:00,60.5,59.1,30.06,SSW,206,0.0,6.0,95,0.00,,---,0.01,VWS V13.01,2013-01-14 13:30:00,
2013-01-14 08:31:00,60.5,59.1,30.06,SSW,206,0.0,3.0,95,0.00,,---,0.01,VWS V13.01,2013-01-14 13:31:00,
2013-01-14 08:34:00,60.5,59.1,30.06,SSW,208,0.0,5.0,95,0.00,,---,0.01,VWS V13.01,2013-01-14 13:34:00,
2013-01-14 08:35:00,60.5,59.1,30.06,SSW,208,0.0,5.0,95,0.00,,---,0.01,VWS V13.01,2013-01-14 13:35:00,
2013-01-14 08:36:00,60.5,59.1,30.06,SW,215,3.0,5.0,95,0.00,,---,0.01,VWS V13.01,2013-01-14 13:36:00,
2013-01-14 08:39:00,60.5,59.1,30.06,SW,214,6.0,10.0,95,0.01,,---,0.02,VWS V13.01,2013-01-14 13:39:00,
2013-01-14 08:40:00,60.5,59.1,30.06,SSW,203,3.0,10.0,95,0.01,,---,0.02,VWS V13.01,2013-01-14 13:40:00,
2013-01-14 08:41:00,60.5,59.1,30.06,SSW,203,3.0,10.0,95,0.01,,---,0.02,VWS V13.01,2013-01-14 13:41:00,
2013-01-14 08:44:00,60.5,59.1,30.06,SSW,199,0.0,10.0,95,0.01,,---,0.02,VWS V13.01,2013-01-14 13:44:00,
2013-01-14 08:45:00,60.5,59.1,30.06,SSW,202,0.0,10.0,95,0.01,,---,0.02,VWS V13.01,2013-01-14 13:45:00,
2013-01-14 08:46:00,60.5,59.1,30.06,SW,227,0.0,10.0,95,0.01,,---,0.03,VWS V13.01,2013-01-14 13:46:00,
2013-01-14 08:49:00,60.5,59.1,30.06,SW,226,2.0,10.0,95,0.02,,---,0.03,VWS V13.01,2013-01-14 13:49:00,
2013-01-14 08:50:00,60.5,59.1,30.06,SW,226,0.0,10.0,95,0.02,,---,0.03,VWS V13.01,2013-01-14 13:50:00,
2013-01-14 08:51:00,60.5,59.1,30.06,SSW,207,0.0,10.0,95,0.02,,---,0.03,VWS V13.01,2013-01-14 13:51:00,
2013-01-14 08:54:00,60.5,59.1,30.07,SSW,205,2.0,10.0,95,0.02,,---,0.03,VWS V13.01,2013-01-14 13:54:00,
2013-01-14 08:55:00,60.5,59.1,30.07,SSW,209,4.0,10.0,95,0.02,,---,0.03,VWS V13.01,2013-01-14 13:55:00,
2013-01-14 08:57:00,60.5,59.1,30.06,SSW,201,0.0,10.0,95,0.02,,---,0.03,VWS V13.01,2013-01-14 13:57:00,
2013-01-14 08:59:00,60.5,59.1,30.06,SSW,202,2.0,10.0,95,0.02,,---,0.03,VWS V13.01,2013-01-14 13:59:00,
2013-01-14 09:00:00,60.5,59.1,30.06,SSW,202,0.0,10.0,95,0.02,,---,0.03,VWS V13.01,2013-01-14 14:00:00,
2013-01-14 09:02:00,60.5,59.1,30.06,SSW,202,0.0,0.0,95,0.02,,---,0.03,VWS V13.01,2013-01-14 14:02:00,
2013-01-14 09:04:00,60.5,59.1,30.06,SSW,202,0.0,0.0,95,0.02,,---,0.03,VWS V13.01,2013-01-14 14:04:00,
2013-01-14 09:05:00,60.5,59.1,30.06,SSW,202,0.0,0.0,95,0.02,,---,0.03,VWS V13.01,2013-01-14 14:05:00,
2013-01-14 09:06:00,60.6,59.2,30.06,SSW,202,0.0,0.0,95,0.02,,---,0.03,VWS V13.01,2013-01-14 14:06:00,
2013-01-14 09:07:00,60.6,59.2,30.06,SSW,202,3.0,3.0,95,0.02,,---,0.03,VWS V13.01,2013-01-14 14:07:00,
2013-01-14 09:10:00,60.6,59.2,30.06,SSW,201,1.0,3.0,95,0.02,,---,0.03,VWS V13.01,2013-01-14 14:10:00,
2013-01-14 09:11:00,60.5,59.1,30.07,SSW,202,0.0,3.0,95,0.02,,---,0.03,VWS V13.01,2013-01-14 14:11:00,
2013-01-14 09:12:00,60.6,59.2,30.07,SSW,202,0.0,3.0,95,0.02,,---,0.03,VWS V13.01,2013-01-14 14:12:00,
2013-01-14 09:15:00,60.6,59.2,30.07,SSW,202,0.0,3.0,95,0.02,,---,0.03,VWS V13.01,2013-01-14 14:15:00,
2013-01-14 09:16:00,60.6,59.2,30.07,SSW,200,3.0,3.0,95,0.02,,---,0.03,VWS V13.01,2013-01-14 14:16:00,
2013-01-14 09:17:00,60.6,59.2,30.07,SSW,202,0.0,3.0,95,0.02,,---,0.03,VWS V13.01,2013-01-14 14:17:00,
2013-01-14 09:20:00,60.6,59.5,30.07,South,178,0.0,7.0,96,0.03,,---,0.04,VWS V13.01,2013-01-14 14:20:00,
2013-01-14 09:21:00,60.6,59.5,30.07,South,178,0.0,7.0,96,0.03,,---,0.04,VWS V13.01,2013-01-14 14:21:00,
2013-01-14 09:22:00,60.6,59.5,30.07,SSE,163,5.0,7.0,96,0.03,,---,0.04,VWS V13.01,2013-01-14 14:22:00,
2013-01-14 09:25:00,60.7,59.6,30.07,SSE,159,0.0,7.0,96,0.03,,---,0.04,VWS V13.01,2013-01-14 14:25:00,
2013-01-14 09:26:00,60.7,59.6,30.07,SSE,159,0.0,7.0,96,0.03,,---,0.04,VWS V13.01,2013-01-14 14:26:00,
2013-01-14 09:27:00,60.7,59.6,30.07,South,184,0.0,7.0,96,0.03,,---,0.04,VWS V13.01,2013-01-14 14:27:00,
2013-01-14 09:30:00,60.7,59.3,30.07,SSW,212,0.0,7.0,95,0.03,,---,0.04,VWS V13.01,2013-01-14 14:30:00,
2013-01-14 09:31:00,60.7,59.3,30.07,SSW,212,0.0,7.0,95,0.03,,---,0.04,VWS V13.01,2013-01-14 14:31:00,
2013-01-14 09:32:00,60.7,59.3,30.07,SSW,211,0.0,0.0,95,0.03,,---,0.04,VWS V13.01,2013-01-14 14:32:00,
2013-01-14 09:35:00,60.7,59.3,30.08,SSW,211,0.0,5.0,95,0.04,,---,0.05,VWS V13.01,2013-01-14 14:35:00,
2013-01-14 09:36:00,60.7,59.3,30.08,SSW,212,0.0,5.0,95,0.04,,---,0.05,VWS V13.01,2013-01-14 14:36:00,
2013-01-14 09:37:00,60.7,59.6,30.08,SSW,212,0.0,5.0,96,0.04,,---,0.06,VWS V13.01,2013-01-14 14:37:00,
2013-01-14 09:40:00,60.7,59.6,30.08,SSW,212,0.0,5.0,96,0.06,,---,0.07,VWS V13.01,2013-01-14 14:40:00,
2013-01-14 09:41:00,60.7,59.6,30.08,SSW,211,0.0,5.0,96,0.06,,---,0.07,VWS V13.01,2013-01-14 14:41:00,
2013-01-14 09:43:00,60.7,59.6,30.08,SSE,167,0.0,5.0,96,0.06,,---,0.07,VWS V13.01,2013-01-14 14:43:00,
2013-01-14 09:45:00,60.7,59.3,30.08,SSW,194,0.0,5.0,95,0.07,,---,0.08,VWS V13.01,2013-01-14 14:45:00,
2013-01-14 09:46:00,60.7,59.6,30.08,SSW,194,0.0,5.0,96,0.07,,---,0.08,VWS V13.01,2013-01-14 14:46:00,
2013-01-14 09:48:00,60.7,59.3,30.08,SSW,206,1.0,5.0,95,0.08,,---,0.09,VWS V13.01,2013-01-14 14:48:00,
2013-01-14 09:50:00,60.7,59.6,30.08,SSW,197,0.0,5.0,96,0.09,,---,0.10,VWS V13.01,2013-01-14 14:50:00,
2013-01-14 09:51:00,60.7,59.6,30.08,South,190,0.0,5.0,96,0.09,,---,0.10,VWS V13.01,2013-01-14 14:51:00,
2013-01-14 09:53:00,60.7,59.6,30.08,SW,223,0.0,5.0,96,0.10,,---,0.11,VWS V13.01,2013-01-14 14:53:00,
2013-01-14 09:55:00,60.7,59.6,30.08,South,173,0.0,5.0,96,0.11,,---,0.12,VWS V13.01,2013-01-14 14:55:00,
2013-01-14 09:56:00,60.7,59.6,30.07,South,173,0.0,5.0,96,0.11,,---,0.12,VWS V13.01,2013-01-14 14:56:00,
2013-01-14 09:58:00,60.7,59.6,30.07,South,183,1.0,5.0,96,0.12,,---,0.13,VWS V13.01,2013-01-14 14:58:00,
2013-01-14 10:00:00,60.7,59.6,30.08,SSE,165,0.0,7.0,96,0.12,,---,0.13,VWS V13.01,2013-01-14 15:00:00,
2013-01-14 10:01:00,60.7,59.6,30.08,SSE,165,0.0,0.0,96,0.12,,---,0.14,VWS V13.01,2013-01-14 15:01:00,
2013-01-14 10:03:00,60.7,59.6,30.08,SSW,210,1.0,2.0,96,0.11,,---,0.14,VWS V13.01,2013-01-14 15:03:00,
2013-01-14 10:06:00,60.7,59.6,30.08,SSE,159,0.0,4.0,96,0.11,,---,0.14,VWS V13.01,2013-01-14 15:06:00,
2013-01-14 10:08:00,60.7,59.6,30.08,SSE,159,0.0,4.0,96,0.11,,---,0.14,VWS V13.01,2013-01-14 15:08:00,
2013-01-14 10:11:00,60.7,59.6,30.07,South,180,0.0,5.0,96,0.11,,---,0.14,VWS V13.01,2013-01-14 15:11:00,
2013-01-14 10:13:00,60.7,59.6,30.07,South,173,0.0,5.0,96,0.11,,---,0.14,VWS V13.01,2013-01-14 15:13:00,
2013-01-14 10:16:00,60.7,59.6,30.07,South,174,0.0,5.0,96,0.11,,---,0.14,VWS V13.01,2013-01-14 15:16:00,
2013-01-14 10:18:00,60.7,59.6,30.07,South,174,0.0,5.0,96,0.11,,---,0.14,VWS V13.01,2013-01-14 15:18:00,
2013-01-14 10:21:00,60.7,59.6,30.07,SSW,196,3.0,5.0,96,0.11,,---,0.14,VWS V13.01,2013-01-14 15:21:00,
2013-01-14 10:23:00,60.8,59.7,30.07,South,180,1.0,5.0,96,0.11,,---,0.14,VWS V13.01,2013-01-14 15:23:00,
2013-01-14 10:26:00,60.8,59.7,30.07,South,169,2.0,7.0,96,0.11,,---,0.14,VWS V13.01,2013-01-14 15:26:00,
2013-01-14 10:27:00,60.8,59.7,30.07,South,169,0.0,7.0,96,0.11,,---,0.14,VWS V13.01,2013-01-14 15:27:00,
2013-01-14 10:28:00,60.9,59.8,30.07,South,169,0.0,7.0,96,0.11,,---,0.14,VWS V13.01,2013-01-14 15:28:00,
2013-01-14 10:31:00,60.9,59.8,30.07,SSE,158,0.0,1.0,96,0.11,,---,0.14,VWS V13.01,2013-01-14 15:31:00,
2013-01-14 10:32:00,60.9,59.8,30.07,SSE,157,0.0,1.0,96,0.10,,---,0.14,VWS V13.01,2013-01-14 15:32:00,
2013-01-14 10:33:00,60.9,59.8,30.07,SSE,153,10.0,10.0,96,0.10,,---,0.14,VWS V13.01,2013-01-14 15:33:00,
2013-01-14 10:36:00,60.9,59.8,30.07,SSW,211,1.0,11.0,96,0.10,,---,0.14,VWS V13.01,2013-01-14 15:36:00,
2013-01-14 10:37:00,60.9,59.8,30.07,SW,214,1.0,11.0,96,0.10,,---,0.14,VWS V13.01,2013-01-14 15:37:00,
2013-01-14 10:38:00,60.9,59.8,30.07,SSE,163,0.0,11.0,96,0.10,,---,0.14,VWS V13.01,2013-01-14 15:38:00,
2013-01-14 10:41:00,60.9,59.8,30.07,South,170,0.0,11.0,96,0.10,,---,0.14,VWS V13.01,2013-01-14 15:41:00,
2013-01-14 10:42:00,60.9,59.8,30.07,South,169,0.0,11.0,96,0.10,,---,0.14,VWS V13.01,2013-01-14 15:42:00,
2013-01-14 10:43:00,60.9,59.8,30.07,South,170,0.0,11.0,96,0.10,,---,0.14,VWS V13.01,2013-01-14 15:43:00,
2013-01-14 10:46:00,60.9,59.8,30.07,SW,215,3.0,11.0,96,0.10,,---,0.14,VWS V13.01,2013-01-14 15:46:00,
2013-01-14 10:47:00,60.9,59.8,30.07,SW,215,0.0,11.0,96,0.10,,---,0.14,VWS V13.01,2013-01-14 15:47:00,
2013-01-14 10:48:00,60.9,59.8,30.07,SW,215,0.0,11.0,96,0.10,,---,0.14,VWS V13.01,2013-01-14 15:48:00,
2013-01-14 10:52:00,60.9,59.8,30.07,SW,215,3.0,11.0,96,0.10,,---,0.14,VWS V13.01,2013-01-14 15:52:00,
2013-01-14 10:53:00,61.0,59.9,30.07,SSW,209,4.0,11.0,96,0.10,,---,0.14,VWS V13.01,2013-01-14 15:53:00,
2013-01-14 10:57:00,61.0,59.9,30.07,SSW,200,0.0,11.0,96,0.10,,---,0.14,VWS V13.01,2013-01-14 15:57:00,
2013-01-14 10:58:00,61.0,59.9,30.07,SW,217,0.0,11.0,96,0.10,,---,0.14,VWS V13.01,2013-01-14 15:58:00,
2013-01-14 11:02:00,61.0,59.9,30.07,SSW,209,0.0,6.0,96,0.02,,---,0.15,VWS V13.01,2013-01-14 16:02:00,
2013-01-14 11:04:00,61.1,60.0,30.06,SSW,203,0.0,7.0,96,0.02,,---,0.15,VWS V13.01,2013-01-14 16:04:00,
2013-01-14 11:07:00,61.1,60.0,30.06,SW,218,0.0,7.0,96,0.02,,---,0.15,VWS V13.01,2013-01-14 16:07:00,
2013-01-14 11:09:00,61.2,60.0,30.06,SSE,160,2.0,7.0,96,0.02,,---,0.15,VWS V13.01,2013-01-14 16:09:00,
2013-01-14 11:12:00,61.3,60.4,30.05,South,191,0.0,7.0,97,0.02,,---,0.15,VWS V13.01,2013-01-14 16:12:00,
2013-01-14 11:14:00,61.4,60.5,30.05,SW,222,3.0,7.0,97,0.02,,---,0.15,VWS V13.01,2013-01-14 16:14:00,
2013-01-14 11:17:00,61.4,60.5,30.05,SW,214,4.0,7.0,97,0.02,,---,0.15,VWS V13.01,2013-01-14 16:17:00,
2013-01-14 11:19:00,61.5,60.6,30.05,SSW,206,5.0,7.0,97,0.02,,---,0.15,VWS V13.01,2013-01-14 16:19:00,
2013-01-14 11:22:00,61.6,60.7,30.05,SW,221,6.0,7.0,97,0.02,,---,0.15,VWS V13.01,2013-01-14 16:22:00,
2013-01-14 11:24:00,61.7,60.8,30.05,WSW,244,3.0,7.0,97,0.02,,---,0.15,VWS V13.01,2013-01-14 16:24:00,
2013-01-14 11:27:00,61.7,60.5,30.05,SSE,165,6.0,10.0,96,0.02,,---,0.15,VWS V13.01,2013-01-14 16:27:00,
2013-01-14 11:28:00,61.7,60.5,30.05,SSW,206,1.0,11.0,96,0.02,,---,0.15,VWS V13.01,2013-01-14 16:28:00,
2013-01-14 11:29:00,61.7,60.5,30.05,SW,220,4.0,11.0,96,0.02,,---,0.15,VWS V13.01,2013-01-14 16:29:00,
2013-01-14 11:32:00,61.7,60.5,30.05,SW,221,1.0,4.0,96,0.01,,---,0.15,VWS V13.01,2013-01-14 16:32:00,
2013-01-14 11:33:00,61.7,60.5,30.05,SW,221,5.0,5.0,96,0.01,,---,0.15,VWS V13.01,2013-01-14 16:33:00,
2013-01-14 11:34:00,61.7,60.5,30.05,SSW,205,2.0,5.0,96,0.01,,---,0.15,VWS V13.01,2013-01-14 16:34:00,
2013-01-14 11:37:00,61.7,60.5,30.05,SW,215,0.0,5.0,96,0.01,,---,0.15,VWS V13.01,2013-01-14 16:37:00,
2013-01-14 11:38:00,61.7,60.5,30.05,SSW,213,4.0,5.0,96,0.01,,---,0.15,VWS V13.01,2013-01-14 16:38:00,
2013-01-14 11:39:00,61.7,60.5,30.05,SSW,213,0.0,5.0,96,0.01,,---,0.15,VWS V13.01,2013-01-14 16:39:00,
2013-01-14 11:42:00,61.7,60.5,30.04,SW,233,0.0,6.0,96,0.01,,---,0.15,VWS V13.01,2013-01-14 16:42:00,
2013-01-14 11:43:00,61.7,60.5,30.04,SW,233,0.0,6.0,96,0.01,,---,0.15,VWS V13.01,2013-01-14 16:43:00,
2013-01-14 11:44:00,61.7,60.5,30.04,SW,233,0.0,6.0,96,0.01,,---,0.15,VWS V13.01,2013-01-14 16:44:00,
2013-01-14 11:47:00,61.7,60.5,30.04,SW,233,2.0,6.0,96,0.01,,---,0.15,VWS V13.01,2013-01-14 16:47:00,
2013-01-14 11:48:00,61.8,60.7,30.04,SW,233,0.0,6.0,96,0.01,,---,0.15,VWS V13.01,2013-01-14 16:48:00,
2013-01-14 11:49:00,61.8,60.7,30.04,SW,233,0.0,6.0,96,0.01,,---,0.15,VWS V13.01,2013-01-14 16:49:00,
2013-01-14 11:52:00,61.8,60.7,30.04,SW,233,0.0,6.0,96,0.01,,---,0.15,VWS V13.01,2013-01-14 16:52:00,
2013-01-14 11:53:00,61.8,60.7,30.04,SW,222,5.0,6.0,96,0.01,,---,0.15,VWS V13.01,2013-01-14 16:53:00,
2013-01-14 11:55:00,61.8,60.9,30.04,South,183,0.0,6.0,97,0.01,,---,0.15,VWS V13.01,2013-01-14 16:55:00,
2013-01-14 11:57:00,61.8,60.9,30.04,South,183,0.0,6.0,97,0.01,,---,0.15,VWS V13.01,2013-01-14 16:57:00,
2013-01-14 11:58:00,61.8,60.9,30.04,South,184,0.0,6.0,97,0.01,,---,0.15,VWS V13.01,2013-01-14 16:58:00,
2013-01-14 12:00:00,61.9,61.0,30.04,SW,215,4.0,6.0,97,0.01,,---,0.15,VWS V13.01,2013-01-14 17:00:00,
2013-01-14 12:03:00,61.9,61.0,30.04,SSW,213,0.0,2.0,97,0.01,,---,0.15,VWS V13.01,2013-01-14 17:03:00,
2013-01-14 12:05:00,61.9,61.0,30.04,South,169,5.0,6.0,97,0.01,,---,0.15,VWS V13.01,2013-01-14 17:05:00,
2013-01-14 12:08:00,61.9,61.0,30.04,SSW,203,0.0,6.0,97,0.01,,---,0.15,VWS V13.01,2013-01-14 17:08:00,
2013-01-14 12:09:00,61.9,61.0,30.04,SSW,203,0.0,6.0,97,0.01,,---,0.15,VWS V13.01,2013-01-14 17:09:00,
2013-01-14 12:10:00,61.9,61.0,30.04,SSW,202,0.0,6.0,97,0.01,,---,0.15,VWS V13.01,2013-01-14 17:10:00,
2013-01-14 12:13:00,62.0,61.1,30.03,SSW,209,0.0,6.0,97,0.01,,---,0.15,VWS V13.01,2013-01-14 17:13:00,
2013-01-14 12:14:00,62.0,61.1,30.03,SSW,195,2.0,6.0,97,0.02,,---,0.16,VWS V13.01,2013-01-14 17:14:00,
2013-01-14 12:15:00,62.0,61.1,30.03,SW,220,4.0,6.0,97,0.02,,---,0.16,VWS V13.01,2013-01-14 17:15:00,
2013-01-14 12:18:00,62.0,61.1,30.03,SSW,210,2.0,6.0,97,0.03,,---,0.17,VWS V13.01,2013-01-14 17:18:00,
2013-01-14 12:19:00,62.0,61.1,30.03,SSW,207,1.0,6.0,97,0.03,,---,0.17,VWS V13.01,2013-01-14 17:19:00,
2013-01-14 12:20:00,62.1,61.2,30.03,SW,236,0.0,6.0,97,0.03,,---,0.18,VWS V13.01,2013-01-14 17:20:00,
2013-01-14 12:23:00,62.1,61.2,30.03,SW,228,0.0,6.0,97,0.05,,---,0.19,VWS V13.01,2013-01-14 17:23:00,
2013-01-14 12:24:00,62.1,61.2,30.03,SW,218,4.0,6.0,97,0.05,,---,0.19,VWS V13.01,2013-01-14 17:24:00,
2013-01-14 12:25:00,62.1,61.2,30.03,South,187,3.0,10.0,97,0.05,,---,0.19,VWS V13.01,2013-01-14 17:25:00,
2013-01-14 12:28:00,62.1,61.2,30.03,SW,215,4.0,10.0,97,0.05,,---,0.19,VWS V13.01,2013-01-14 17:28:00,
2013-01-14 12:29:00,62.1,61.2,30.03,SSW,213,0.0,10.0,97,0.05,,---,0.19,VWS V13.01,2013-01-14 17:29:00,
2013-01-14 12:30:00,62.1,61.2,30.03,SSW,213,0.0,10.0,97,0.05,,---,0.19,VWS V13.01,2013-01-14 17:30:00,
2013-01-14 12:33:00,62.1,61.0,30.03,South,190,0.0,5.0,96,0.05,,---,0.20,VWS V13.01,2013-01-14 17:33:00,
2013-01-14 12:34:00,62.2,61.3,30.03,South,190,0.0,5.0,97,0.05,,---,0.21,VWS V13.01,2013-01-14 17:34:00,
2013-01-14 12:35:00,62.2,61.0,30.03,SSW,197,2.0,5.0,96,0.06,,---,0.22,VWS V13.01,2013-01-14 17:35:00,
2013-01-14 12:38:00,62.2,61.0,30.03,WSW,237,0.0,5.0,96,0.07,,---,0.22,VWS V13.01,2013-01-14 17:38:00,
2013-01-14 12:39:00,62.2,61.0,30.03,WSW,237,0.0,5.0,96,0.08,,---,0.23,VWS V13.01,2013-01-14 17:39:00,
2013-01-14 12:40:00,62.2,61.3,30.03,WSW,237,0.0,5.0,97,0.08,,---,0.23,VWS V13.01,2013-01-14 17:40:00,
2013-01-14 12:43:00,62.2,61.3,30.03,SW,217,1.0,6.0,97,0.08,,---,0.23,VWS V13.01,2013-01-14 17:43:00,
2013-01-14 12:44:00,62.2,61.3,30.03,SW,217,3.0,6.0,97,0.08,,---,0.23,VWS V13.01,2013-01-14 17:44:00,
2013-01-14 12:45:00,62.2,61.3,30.03,SSW,208,0.0,6.0,97,0.09,,---,0.24,VWS V13.01,2013-01-14 17:45:00,
2013-01-14 12:48:00,62.2,61.3,30.03,SSW,209,3.0,6.0,97,0.09,,---,0.25,VWS V13.01,2013-01-14 17:48:00,
2013-01-14 12:49:00,62.2,61.3,30.03,SSW,209,2.0,6.0,97,0.10,,---,0.25,VWS V13.01,2013-01-14 17:49:00,
2013-01-14 12:51:00,62.2,61.3,30.02,SSW,209,2.0,6.0,97,0.11,,---,0.26,VWS V13.01,2013-01-14 17:51:00,
2013-01-14 12:53:00,62.3,61.4,30.02,SSW,209,1.0,6.0,97,0.12,,---,0.27,VWS V13.01,2013-01-14 17:53:00,
2013-01-14 12:54:00,62.3,61.4,30.02,SSW,211,0.0,6.0,97,0.12,,---,0.27,VWS V13.01,2013-01-14 17:54:00,
2013-01-14 12:56:00,62.3,61.4,30.02,SW,215,0.0,6.0,97,0.12,,---,0.27,VWS V13.01,2013-01-14 17:56:00,
2013-01-14 12:58:00,62.3,61.4,30.02,SSW,213,2.0,6.0,97,0.12,,---,0.28,VWS V13.01,2013-01-14 17:58:00,
2013-01-14 12:59:00,62.3,61.4,30.02,SW,219,0.0,7.0,97,0.13,,---,0.28,VWS V13.01,2013-01-14 17:59:00,
2013-01-14 13:01:00,62.3,61.4,30.02,SW,220,0.0,0.0,97,0.13,,---,0.28,VWS V13.01,2013-01-14 18:01:00,
2013-01-14 13:03:00,62.4,61.5,30.02,SW,217,0.0,5.0,97,0.14,,---,0.29,VWS V13.01,2013-01-14 18:03:00,
2013-01-14 13:04:00,62.4,61.5,30.02,SW,217,3.0,5.0,97,0.14,,---,0.29,VWS V13.01,2013-01-14 18:04:00,
2013-01-14 13:06:00,62.4,61.5,30.02,SW,217,0.0,5.0,97,0.14,,---,0.29,VWS V13.01,2013-01-14 18:06:00,
2013-01-14 13:09:00,62.4,61.5,30.02,SW,217,0.0,5.0,97,0.14,,---,0.29,VWS V13.01,2013-01-14 18:09:00,
2013-01-14 13:10:00,62.4,61.5,30.02,SSW,202,2.0,7.0,97,0.15,,---,0.30,VWS V13.01,2013-01-14 18:10:00,
2013-01-14 13:11:00,62.5,61.6,30.02,SSW,196,4.0,7.0,97,0.15,,---,0.30,VWS V13.01,2013-01-14 18:11:00,
2013-01-14 13:14:00,62.5,61.6,30.02,SSW,199,0.0,7.0,97,0.15,,---,0.30,VWS V13.01,2013-01-14 18:14:00,
2013-01-14 13:15:00,62.5,61.6,30.02,SSW,201,2.0,7.0,97,0.15,,---,0.30,VWS V13.01,2013-01-14 18:15:00,
2013-01-14 13:16:00,62.5,61.6,30.02,SSW,201,0.0,7.0,97,0.15,,---,0.30,VWS V13.01,2013-01-14 18:16:00,
2013-01-14 13:19:00,62.5,61.6,30.02,SSW,200,0.0,7.0,97,0.15,,---,0.30,VWS V13.01,2013-01-14 18:19:00,
2013-01-14 13:20:00,62.6,61.7,30.02,SSW,200,0.0,7.0,97,0.15,,---,0.30,VWS V13.01,2013-01-14 18:20:00,
2013-01-14 13:21:00,62.6,61.7,30.02,SSW,205,0.0,7.0,97,0.15,,---,0.30,VWS V13.01,2013-01-14 18:21:00,
2013-01-14 13:24:00,62.6,61.7,30.02,SSW,205,0.0,7.0,97,0.15,,---,0.30,VWS V13.01,2013-01-14 18:24:00,
2013-01-14 13:25:00,62.6,61.7,30.02,SW,221,0.0,7.0,97,0.15,,---,0.30,VWS V13.01,2013-01-14 18:25:00,
2013-01-14 13:26:00,62.6,61.7,30.02,South,184,1.0,7.0,97,0.15,,---,0.30,VWS V13.01,2013-01-14 18:26:00,
2013-01-14 13:29:00,62.6,61.7,30.02,SSW,202,0.0,7.0,97,0.15,,---,0.30,VWS V13.01,2013-01-14 18:29:00,
2013-01-14 13:30:00,62.7,61.8,30.01,SSW,202,0.0,7.0,97,0.15,,---,0.30,VWS V13.01,2013-01-14 18:30:00,
2013-01-14 13:32:00,62.7,61.8,30.01,SSW,202,0.0,3.0,97,0.10,,---,0.30,VWS V13.01,2013-01-14 18:32:00,
2013-01-14 13:34:00,62.7,61.8,30.01,SSW,202,0.0,3.0,97,0.10,,---,0.31,VWS V13.01,2013-01-14 18:34:00,
2013-01-14 13:36:00,62.7,61.8,30.01,SSW,205,4.0,5.0,97,0.11,,---,0.31,VWS V13.01,2013-01-14 18:36:00,
2013-01-14 13:37:00,62.7,61.8,30.01,SSW,212,0.0,5.0,97,0.11,,---,0.31,VWS V13.01,2013-01-14 18:37:00,
2013-01-14 13:39:00,62.8,61.9,30.01,SSW,203,1.0,6.0,97,0.11,,---,0.31,VWS V13.01,2013-01-14 18:39:00,
2013-01-14 13:41:00,62.8,61.9,30.02,SW,234,0.0,6.0,97,0.11,,---,0.31,VWS V13.01,2013-01-14 18:41:00,
2013-01-14 13:42:00,62.8,61.9,30.02,SW,234,0.0,6.0,97,0.11,,---,0.31,VWS V13.01,2013-01-14 18:42:00,
2013-01-14 13:44:00,62.9,62.0,30.01,SW,227,0.0,6.0,97,0.11,,---,0.31,VWS V13.01,2013-01-14 18:44:00,
2013-01-14 13:46:00,62.9,62.0,30.02,SW,223,0.0,6.0,97,0.11,,---,0.31,VWS V13.01,2013-01-14 18:46:00,
2013-01-14 13:47:00,62.9,62.0,30.02,SW,216,0.0,6.0,97,0.11,,---,0.31,VWS V13.01,2013-01-14 18:47:00,
2013-01-14 13:49:00,62.9,62.0,30.01,SW,215,0.0,6.0,97,0.11,,---,0.31,VWS V13.01,2013-01-14 18:49:00,
2013-01-14 13:51:00,63.0,62.1,30.01,SW,216,0.0,6.0,97,0.11,,---,0.31,VWS V13.01,2013-01-14 18:51:00,
2013-01-14 13:52:00,63.0,62.1,30.02,SW,215,0.0,6.0,97,0.11,,---,0.31,VWS V13.01,2013-01-14 18:52:00,
2013-01-14 13:54:00,63.1,62.2,30.01,South,191,1.0,6.0,97,0.11,,---,0.31,VWS V13.01,2013-01-14 18:54:00,
2013-01-14 13:56:00,63.1,62.2,30.01,South,185,1.0,6.0,97,0.11,,---,0.31,VWS V13.01,2013-01-14 18:56:00,
2013-01-14 13:57:00,63.1,62.2,30.01,South,185,0.0,6.0,97,0.11,,---,0.31,VWS V13.01,2013-01-14 18:57:00,
2013-01-14 13:59:00,63.2,62.3,30.01,South,185,0.0,6.0,97,0.11,,---,0.31,VWS V13.01,2013-01-14 18:59:00,
2013-01-14 14:01:00,63.2,62.3,30.01,South,187,0.0,0.0,97,0.11,,---,0.31,VWS V13.01,2013-01-14 19:01:00,
2013-01-14 14:02:00,63.2,62.3,30.01,South,188,0.0,3.0,97,0.03,,---,0.31,VWS V13.01,2013-01-14 19:02:00,
2013-01-14 14:05:00,63.2,62.3,30.01,South,188,0.0,3.0,97,0.03,,---,0.31,VWS V13.01,2013-01-14 19:05:00,
2013-01-14 14:06:00,63.2,62.3,30.01,South,188,0.0,3.0,97,0.03,,---,0.31,VWS V13.01,2013-01-14 19:06:00,
2013-01-14 14:07:00,63.2,62.3,30.01,South,188,0.0,3.0,97,0.03,,---,0.31,VWS V13.01,2013-01-14 19:07:00,
2013-01-14 14:10:00,63.3,62.4,30.01,South,188,0.0,3.0,97,0.03,,---,0.31,VWS V13.01,2013-01-14 19:10:00,
2013-01-14 14:11:00,63.3,62.4,30.01,South,187,0.0,3.0,97,0.03,,---,0.31,VWS V13.01,2013-01-14 19:11:00,
2013-01-14 14:12:00,63.3,62.4,30.01,South,188,0.0,3.0,97,0.03,,---,0.31,VWS V13.01,2013-01-14 19:12:00,
2013-01-14 14:15:00,63.4,62.5,30.02,South,188,0.0,3.0,97,0.03,,---,0.31,VWS V13.01,2013-01-14 19:15:00,
2013-01-14 14:17:00,63.4,62.5,30.02,South,188,0.0,3.0,97,0.03,,---,0.31,VWS V13.01,2013-01-14 19:17:00,
2013-01-14 14:20:00,63.5,62.6,30.02,South,187,2.0,4.0,97,0.03,,---,0.31,VWS V13.01,2013-01-14 19:20:00,
2013-01-14 14:22:00,63.5,62.6,30.02,South,188,2.0,4.0,97,0.03,,---,0.31,VWS V13.01,2013-01-14 19:22:00,
2013-01-14 14:23:00,63.5,62.6,30.02,South,187,0.0,4.0,97,0.03,,---,0.31,VWS V13.01,2013-01-14 19:23:00,
2013-01-14 14:25:00,63.5,62.6,30.02,South,187,0.0,4.0,97,0.03,,---,0.31,VWS V13.01,2013-01-14 19:25:00,
2013-01-14 14:27:00,63.5,62.6,30.02,South,187,0.0,4.0,97,0.03,,---,0.31,VWS V13.01,2013-01-14 19:27:00,
2013-01-14 14:28:00,63.6,62.7,30.02,South,189,2.0,5.0,97,0.03,,---,0.32,VWS V13.01,2013-01-14 19:28:00,
2013-01-14 14:30:00,63.6,62.7,30.02,South,188,0.0,5.0,97,0.04,,---,0.32,VWS V13.01,2013-01-14 19:30:00,
2013-01-14 14:32:00,63.6,62.7,30.02,South,189,0.0,1.0,97,0.02,,---,0.32,VWS V13.01,2013-01-14 19:32:00,
2013-01-14 14:33:00,63.6,62.7,30.02,South,189,0.0,1.0,97,0.02,,---,0.32,VWS V13.01,2013-01-14 19:33:00,
2013-01-14 14:35:00,63.6,62.7,30.02,South,188,0.0,1.0,97,0.02,,---,0.32,VWS V13.01,2013-01-14 19:35:00,
2013-01-14 14:37:00,63.6,62.7,30.02,South,188,0.0,1.0,97,0.02,,---,0.32,VWS V13.01,2013-01-14 19:37:00,
2013-01-14 14:38:00,63.6,62.7,30.02,South,189,0.0,1.0,97,0.02,,---,0.32,VWS V13.01,2013-01-14 19:38:00,
2013-01-14 14:40:00,63.6,62.7,30.02,South,189,0.0,1.0,97,0.02,,---,0.32,VWS V13.01,2013-01-14 19:40:00,
2013-01-14 14:41:00,63.6,62.7,30.02,South,189,0.0,1.0,97,0.02,,---,0.32,VWS V13.01,2013-01-14 19:41:00,
2013-01-14 14:42:00,63.6,62.7,30.03,South,189,0.0,3.0,97,0.02,,---,0.32,VWS V13.01,2013-01-14 19:42:00,
2013-01-14 14:43:00,63.6,62.7,30.03,South,189,0.0,3.0,97,0.02,,---,0.32,VWS V13.01,2013-01-14 19:43:00,
2013-01-14 14:45:00,63.6,62.7,30.03,South,188,0.0,3.0,97,0.02,,---,0.32,VWS V13.01,2013-01-14 19:45:00,
2013-01-14 14:46:00,63.6,62.7,30.03,South,188,0.0,3.0,97,0.02,,---,0.32,VWS V13.01,2013-01-14 19:46:00,
2013-01-14 14:47:00,63.6,62.7,30.03,South,189,0.0,3.0,97,0.02,,---,0.32,VWS V13.01,2013-01-14 19:47:00,
2013-01-14 14:48:00,63.6,62.7,30.03,South,189,0.0,3.0,97,0.02,,---,0.32,VWS V13.01,2013-01-14 19:48:00,
2013-01-14 14:50:00,63.6,62.7,30.03,South,188,0.0,3.0,97,0.02,,---,0.32,VWS V13.01,2013-01-14 19:50:00,
2013-01-14 14:51:00,63.6,62.7,30.03,South,188,0.0,3.0,97,0.02,,---,0.32,VWS V13.01,2013-01-14 19:51:00,
2013-01-14 14:52:00,63.6,62.7,30.03,South,188,0.0,3.0,97,0.02,,---,0.32,VWS V13.01,2013-01-14 19:52:00,
2013-01-14 14:54:00,63.7,62.8,30.03,South,188,0.0,3.0,97,0.02,,---,0.32,VWS V13.01,2013-01-14 19:54:00,
2013-01-14 14:56:00,63.7,62.8,30.03,South,189,2.0,3.0,97,0.02,,---,0.32,VWS V13.01,2013-01-14 19:56:00,
2013-01-14 14:57:00,63.7,62.8,30.03,South,191,0.0,5.0,97,0.02,,---,0.32,VWS V13.01,2013-01-14 19:57:00,
2013-01-14 14:59:00,63.7,62.8,30.03,SSW,192,0.0,5.0,97,0.02,,---,0.32,VWS V13.01,2013-01-14 19:59:00,
2013-01-14 15:01:00,63.7,62.8,30.03,SSW,192,0.0,0.0,97,0.03,,---,0.33,VWS V13.01,2013-01-14 20:01:00,
2013-01-14 15:02:00,63.7,62.8,30.03,SSW,192,0.0,3.0,97,0.02,,---,0.33,VWS V13.01,2013-01-14 20:02:00,
2013-01-14 15:04:00,63.7,62.8,30.03,SSW,192,0.0,3.0,97,0.02,,---,0.33,VWS V13.01,2013-01-14 20:04:00,
2013-01-14 15:06:00,63.7,62.8,30.03,South,191,0.0,3.0,97,0.02,,---,0.33,VWS V13.01,2013-01-14 20:06:00,
2013-01-14 15:07:00,63.7,62.8,30.03,South,191,0.0,3.0,97,0.02,,---,0.33,VWS V13.01,2013-01-14 20:07:00,
2013-01-14 15:09:00,63.7,62.8,30.03,South,191,0.0,3.0,97,0.02,,---,0.33,VWS V13.01,2013-01-14 20:09:00,
2013-01-14 15:11:00,63.7,62.8,30.03,SSW,192,0.0,3.0,97,0.02,,---,0.33,VWS V13.01,2013-01-14 20:11:00,
2013-01-14 15:12:00,63.7,62.8,30.03,SSW,192,0.0,3.0,97,0.02,,---,0.33,VWS V13.01,2013-01-14 20:12:00,
2013-01-14 15:13:00,63.7,62.8,30.03,SSW,192,0.0,3.0,97,0.02,,---,0.33,VWS V13.01,2013-01-14 20:13:00,
2013-01-14 15:14:00,63.7,62.8,30.03,SSW,192,0.0,3.0,97,0.02,,---,0.33,VWS V13.01,2013-01-14 20:14:00,
2013-01-14 15:16:00,63.7,62.8,30.03,South,191,0.0,3.0,97,0.02,,---,0.33,VWS V13.01,2013-01-14 20:16:00,
2013-01-14 15:17:00,63.7,62.8,30.03,South,191,0.0,3.0,97,0.02,,---,0.33,VWS V13.01,2013-01-14 20:17:00,
2013-01-14 15:18:00,63.7,62.8,30.03,South,191,0.0,3.0,97,0.02,,---,0.33,VWS V13.01,2013-01-14 20:18:00,
2013-01-14 15:19:00,63.7,62.8,30.03,South,188,0.0,4.0,97,0.02,,---,0.33,VWS V13.01,2013-01-14 20:19:00,
2013-01-14 15:21:00,63.7,62.8,30.03,South,180,0.0,4.0,97,0.02,,---,0.33,VWS V13.01,2013-01-14 20:21:00,
2013-01-14 15:22:00,63.7,62.8,30.04,South,180,1.0,4.0,97,0.02,,---,0.33,VWS V13.01,2013-01-14 20:22:00,
2013-01-14 15:23:00,63.7,62.8,30.03,South,180,0.0,4.0,97,0.02,,---,0.33,VWS V13.01,2013-01-14 20:23:00,
2013-01-14 15:25:00,63.7,62.8,30.04,South,189,1.0,4.0,97,0.02,,---,0.33,VWS V13.01,2013-01-14 20:25:00,
2013-01-14 15:26:00,63.7,62.8,30.04,South,190,3.0,4.0,97,0.02,,---,0.33,VWS V13.01,2013-01-14 20:26:00,
2013-01-14 15:27:00,63.7,62.8,30.04,South,191,0.0,4.0,97,0.02,,---,0.33,VWS V13.01,2013-01-14 20:27:00,
2013-01-14 15:28:00,63.6,62.7,30.04,South,190,0.0,4.0,97,0.02,,---,0.33,VWS V13.01,2013-01-14 20:28:00,
2013-01-14 15:30:00,63.7,62.8,30.04,South,190,0.0,4.0,97,0.02,,---,0.33,VWS V13.01,2013-01-14 20:30:00,
2013-01-14 15:31:00,63.7,62.8,30.04,South,190,0.0,0.0,97,0.02,,---,0.33,VWS V13.01,2013-01-14 20:31:00,
2013-01-14 15:33:00,63.6,62.7,30.04,South,190,0.0,0.0,97,0.01,,---,0.33,VWS V13.01,2013-01-14 20:33:00,
2013-01-14 15:35:00,63.6,62.7,30.04,South,190,2.0,2.0,97,0.01,,---,0.33,VWS V13.01,2013-01-14 20:35:00,
2013-01-14 15:36:00,63.6,62.7,30.04,South,190,0.0,3.0,97,0.01,,---,0.33,VWS V13.01,2013-01-14 20:36:00,
2013-01-14 15:38:00,63.6,62.7,30.04,South,190,0.0,3.0,97,0.01,,---,0.33,VWS V13.01,2013-01-14 20:38:00,
2013-01-14 15:40:00,63.6,62.7,30.04,South,190,0.0,3.0,97,0.02,,---,0.34,VWS V13.01,2013-01-14 20:40:00,
2013-01-14 15:41:00,63.6,62.7,30.04,South,190,0.0,3.0,97,0.02,,---,0.34,VWS V13.01,2013-01-14 20:41:00,
2013-01-14 15:43:00,63.6,62.7,30.04,South,190,0.0,3.0,97,0.02,,---,0.34,VWS V13.01,2013-01-14 20:43:00,
2013-01-14 15:45:00,63.6,62.7,30.05,South,190,0.0,3.0,97,0.02,,---,0.34,VWS V13.01,2013-01-14 20:45:00,
2013-01-14 15:47:00,63.6,62.7,30.05,South,190,0.0,4.0,97,0.02,,---,0.34,VWS V13.01,2013-01-14 20:47:00,
2013-01-14 15:48:00,63.6,62.7,30.05,South,190,0.0,4.0,97,0.02,,---,0.34,VWS V13.01,2013-01-14 20:48:00,
2013-01-14 15:50:00,63.6,62.7,30.05,South,190,0.0,4.0,97,0.02,,---,0.34,VWS V13.01,2013-01-14 20:50:00,
2013-01-14 15:52:00,63.6,62.7,30.05,South,190,0.0,4.0,97,0.02,,---,0.34,VWS V13.01,2013-01-14 20:52:00,
2013-01-14 15:53:00,63.6,62.7,30.05,South,191,0.0,4.0,97,0.02,,---,0.34,VWS V13.01,2013-01-14 20:53:00,
2013-01-14 15:55:00,63.6,62.7,30.05,South,191,0.0,4.0,97,0.02,,---,0.34,VWS V13.01,2013-01-14 20:55:00,
2013-01-14 15:57:00,63.6,62.7,30.05,South,190,0.0,4.0,97,0.02,,---,0.34,VWS V13.01,2013-01-14 20:57:00,
2013-01-14 15:58:00,63.6,62.7,30.05,South,190,0.0,4.0,97,0.02,,---,0.34,VWS V13.01,2013-01-14 20:58:00,
2013-01-14 16:00:00,63.6,62.7,30.05,South,191,0.0,4.0,97,0.02,,---,0.34,VWS V13.01,2013-01-14 21:00:00,
2013-01-14 16:02:00,63.6,62.7,30.05,South,190,1.0,1.0,97,0.01,,---,0.34,VWS V13.01,2013-01-14 21:02:00,
2013-01-14 16:03:00,63.6,62.7,30.05,South,190,0.0,1.0,97,0.01,,---,0.34,VWS V13.01,2013-01-14 21:03:00,
2013-01-14 16:04:00,63.6,62.7,30.05,South,190,0.0,1.0,97,0.01,,---,0.34,VWS V13.01,2013-01-14 21:04:00,
2013-01-14 16:05:00,63.6,62.7,30.05,South,190,0.0,1.0,97,0.01,,---,0.34,VWS V13.01,2013-01-14 21:05:00,
2013-01-14 16:07:00,63.6,62.7,30.05,South,190,0.0,3.0,97,0.01,,---,0.34,VWS V13.01,2013-01-14 21:07:00,
2013-01-14 16:08:00,63.6,62.7,30.05,South,190,0.0,3.0,97,0.01,,---,0.34,VWS V13.01,2013-01-14 21:08:00,
2013-01-14 16:09:00,63.6,62.7,30.05,South,190,0.0,3.0,97,0.01,,---,0.34,VWS V13.01,2013-01-14 21:09:00,
2013-01-14 16:10:00,63.6,62.7,30.06,South,190,0.0,3.0,97,0.01,,---,0.34,VWS V13.01,2013-01-14 21:10:00,
2013-01-14 16:12:00,63.6,62.7,30.06,South,190,2.0,3.0,97,0.01,,---,0.34,VWS V13.01,2013-01-14 21:12:00,
2013-01-14 16:14:00,63.6,62.7,30.06,South,190,0.0,3.0,97,0.01,,---,0.34,VWS V13.01,2013-01-14 21:14:00,
2013-01-14 16:15:00,63.6,62.7,30.06,South,190,0.0,3.0,97,0.01,,---,0.34,VWS V13.01,2013-01-14 21:15:00,
2013-01-14 16:17:00,63.6,62.7,30.06,SW,219,0.0,4.0,97,0.01,,---,0.34,VWS V13.01,2013-01-14 21:17:00,
2013-01-14 16:19:00,63.6,62.7,30.06,SW,215,0.0,4.0,97,0.01,,---,0.34,VWS V13.01,2013-01-14 21:19:00,
2013-01-14 16:20:00,63.6,62.7,30.06,SSW,194,0.0,4.0,97,0.01,,---,0.34,VWS V13.01,2013-01-14 21:20:00,
2013-01-14 16:22:00,63.6,62.7,30.06,SSW,213,0.0,8.0,97,0.01,,---,0.34,VWS V13.01,2013-01-14 21:22:00,
2013-01-14 16:24:00,63.6,62.7,30.06,SSW,213,0.0,8.0,97,0.01,,---,0.34,VWS V13.01,2013-01-14 21:24:00,
2013-01-14 16:25:00,63.6,62.7,30.06,SSW,213,0.0,8.0,97,0.01,,---,0.34,VWS V13.01,2013-01-14 21:25:00,
2013-01-14 16:28:00,63.6,62.7,30.06,SSW,205,0.0,8.0,97,0.01,,---,0.34,VWS V13.01,2013-01-14 21:28:00,
2013-01-14 16:29:00,63.6,62.7,30.06,SSE,168,0.0,8.0,97,0.01,,---,0.34,VWS V13.01,2013-01-14 21:29:00,
2013-01-14 16:31:00,63.6,62.7,30.06,South,172,0.0,8.0,97,0.01,,---,0.34,VWS V13.01,2013-01-14 21:31:00,
2013-01-14 16:33:00,63.6,62.7,30.06,South,172,0.0,2.0,97,0.01,,---,0.34,VWS V13.01,2013-01-14 21:33:00,
2013-01-14 16:34:00,63.6,62.7,30.06,South,173,1.0,2.0,97,0.01,,---,0.34,VWS V13.01,2013-01-14 21:34:00,
2013-01-14 16:36:00,63.6,62.7,30.06,South,173,0.0,2.0,97,0.01,,---,0.34,VWS V13.01,2013-01-14 21:36:00,
2013-01-14 16:38:00,63.6,62.7,30.06,South,173,0.0,2.0,97,0.01,,---,0.34,VWS V13.01,2013-01-14 21:38:00,
2013-01-14 16:39:00,63.6,62.7,30.06,South,174,0.0,2.0,97,0.01,,---,0.34,VWS V13.01,2013-01-14 21:39:00,
2013-01-14 16:41:00,63.6,62.7,30.06,SSW,198,2.0,5.0,97,0.01,,---,0.34,VWS V13.01,2013-01-14 21:41:00,
2013-01-14 16:43:00,63.6,62.7,30.06,SSW,202,0.0,5.0,97,0.01,,---,0.34,VWS V13.01,2013-01-14 21:43:00,
2013-01-14 16:44:00,63.6,62.7,30.06,SSW,202,0.0,5.0,97,0.01,,---,0.34,VWS V13.01,2013-01-14 21:44:00,
2013-01-14 16:45:00,63.6,62.7,30.06,SSW,203,2.0,5.0,97,0.01,,---,0.34,VWS V13.01,2013-01-14 21:45:00,
2013-01-14 16:46:00,63.6,62.7,30.06,SSW,203,0.0,5.0,97,0.01,,---,0.34,VWS V13.01,2013-01-14 21:46:00,
2013-01-14 16:48:00,63.6,62.7,30.06,SSW,203,0.0,5.0,97,0.01,,---,0.34,VWS V13.01,2013-01-14 21:48:00,
2013-01-14 16:49:00,63.6,62.7,30.06,SW,225,2.0,5.0,97,0.01,,---,0.34,VWS V13.01,2013-01-14 21:49:00,
2013-01-14 16:50:00,63.6,62.7,30.06,SW,225,0.0,5.0,97,0.01,,---,0.34,VWS V13.01,2013-01-14 21:50:00,
2013-01-14 16:51:00,63.6,62.7,30.06,SW,223,0.0,5.0,97,0.01,,---,0.34,VWS V13.01,2013-01-14 21:51:00,
2013-01-14 16:53:00,63.6,62.7,30.06,SSW,207,4.0,6.0,97,0.01,,---,0.34,VWS V13.01,2013-01-14 21:53:00,
2013-01-14 16:54:00,63.6,62.7,30.06,SSW,208,1.0,6.0,97,0.01,,---,0.34,VWS V13.01,2013-01-14 21:54:00,
2013-01-14 16:55:00,63.6,62.7,30.06,SSW,208,0.0,6.0,97,0.01,,---,0.34,VWS V13.01,2013-01-14 21:55:00,
2013-01-14 16:56:00,63.5,62.6,30.06,SSW,207,0.0,6.0,97,0.01,,---,0.34,VWS V13.01,2013-01-14 21:56:00,
2013-01-14 16:58:00,63.5,62.6,30.06,SSW,201,0.0,6.0,97,0.01,,---,0.34,VWS V13.01,2013-01-14 21:58:00,
2013-01-14 16:59:00,63.5,62.6,30.06,SSW,200,0.0,6.0,97,0.01,,---,0.34,VWS V13.01,2013-01-14 21:59:00,
2013-01-14 17:00:00,63.5,62.6,30.06,SSW,201,0.0,6.0,97,0.01,,---,0.34,VWS V13.01,2013-01-14 22:00:00,
2013-01-14 17:01:00,63.5,62.6,30.06,SSW,200,2.0,2.0,97,0.01,,---,0.34,VWS V13.01,2013-01-14 22:01:00,
2013-01-14 17:04:00,63.5,62.6,30.06,SSW,211,0.0,5.0,97,0.00,,---,0.34,VWS V13.01,2013-01-14 22:04:00,
2013-01-14 17:05:00,63.5,62.6,30.06,SSW,211,0.0,5.0,97,0.00,,---,0.34,VWS V13.01,2013-01-14 22:05:00,
2013-01-14 17:06:00,63.5,62.6,30.06,WSW,252,1.0,5.0,97,0.00,,---,0.34,VWS V13.01,2013-01-14 22:06:00,
2013-01-14 17:09:00,63.4,62.5,30.06,WSW,249,0.0,5.0,97,0.00,,---,0.34,VWS V13.01,2013-01-14 22:09:00,
2013-01-14 17:10:00,63.4,62.5,30.06,WSW,248,0.0,5.0,97,0.00,,---,0.34,VWS V13.01,2013-01-14 22:10:00,
2013-01-14 17:11:00,63.4,62.5,30.07,WSW,242,0.0,5.0,97,0.00,,---,0.34,VWS V13.01,2013-01-14 22:11:00,
2013-01-14 17:14:00,63.4,62.5,30.06,WSW,241,0.0,5.0,97,0.00,,---,0.34,VWS V13.01,2013-01-14 22:14:00,
2013-01-14 17:15:00,63.4,62.5,30.06,WSW,241,0.0,5.0,97,0.00,,---,0.34,VWS V13.01,2013-01-14 22:15:00,
2013-01-14 17:16:00,63.4,62.5,30.06,WSW,241,0.0,5.0,97,0.00,,---,0.34,VWS V13.01,2013-01-14 22:16:00,
2013-01-14 17:19:00,63.3,62.4,30.06,WSW,241,0.0,5.0,97,0.00,,---,0.34,VWS V13.01,2013-01-14 22:19:00,
2013-01-14 17:20:00,63.3,62.4,30.06,WSW,241,0.0,5.0,97,0.00,,---,0.34,VWS V13.01,2013-01-14 22:20:00,
2013-01-14 17:21:00,63.3,62.4,30.07,WSW,241,0.0,5.0,97,0.00,,---,0.34,VWS V13.01,2013-01-14 22:21:00,
2013-01-14 17:24:00,63.3,62.4,30.07,WSW,241,0.0,5.0,97,0.00,,---,0.34,VWS V13.01,2013-01-14 22:24:00,
2013-01-14 17:25:00,63.3,62.4,30.07,WSW,241,0.0,5.0,97,0.00,,---,0.34,VWS V13.01,2013-01-14 22:25:00,
2013-01-14 17:26:00,63.3,62.4,30.07,WSW,241,0.0,5.0,97,0.00,,---,0.34,VWS V13.01,2013-01-14 22:26:00,
2013-01-14 17:30:00,63.2,62.3,30.07,WSW,241,0.0,5.0,97,0.00,,---,0.34,VWS V13.01,2013-01-14 22:30:00,
2013-01-14 17:31:00,63.2,62.3,30.07,WSW,241,0.0,0.0,97,0.00,,---,0.34,VWS V13.01,2013-01-14 22:31:00,
2013-01-14 17:35:00,63.2,62.3,30.07,WSW,241,0.0,1.0,97,0.00,,---,0.34,VWS V13.01,2013-01-14 22:35:00,
2013-01-14 17:36:00,63.2,62.3,30.07,WSW,241,0.0,1.0,97,0.00,,---,0.34,VWS V13.01,2013-01-14 22:36:00,
2013-01-14 17:40:00,63.2,62.3,30.06,WSW,241,0.0,1.0,97,0.00,,---,0.34,VWS V13.01,2013-01-14 22:40:00,
2013-01-14 17:41:00,63.2,62.3,30.06,WSW,241,0.0,1.0,97,0.00,,---,0.34,VWS V13.01,2013-01-14 22:41:00,
2013-01-14 17:45:00,63.1,62.2,30.06,WSW,241,0.0,1.0,97,0.00,,---,0.34,VWS V13.01,2013-01-14 22:45:00,
2013-01-14 17:46:00,63.2,62.3,30.06,WSW,241,0.0,1.0,97,0.00,,---,0.34,VWS V13.01,2013-01-14 22:46:00,
2013-01-14 17:50:00,63.1,62.2,30.06,WSW,241,0.0,1.0,97,0.00,,---,0.34,VWS V13.01,2013-01-14 22:50:00,
2013-01-14 17:51:00,63.1,62.2,30.06,WSW,241,0.0,1.0,97,0.00,,---,0.34,VWS V13.01,2013-01-14 22:51:00,
2013-01-14 17:52:00,63.1,62.2,30.06,WSW,241,0.0,1.0,97,0.00,,---,0.34,VWS V13.01,2013-01-14 22:52:00,
2013-01-14 17:55:00,63.1,62.2,30.06,WSW,241,0.0,1.0,97,0.00,,---,0.34,VWS V13.01,2013-01-14 22:55:00,
2013-01-14 17:56:00,63.1,62.2,30.06,WSW,241,0.0,1.0,97,0.00,,---,0.34,VWS V13.01,2013-01-14 22:56:00,
2013-01-14 17:57:00,63.1,62.2,30.06,WSW,241,0.0,1.0,97,0.00,,---,0.34,VWS V13.01,2013-01-14 22:57:00,
2013-01-14 18:00:00,63.0,62.1,30.06,WSW,241,0.0,1.0,97,0.00,,---,0.34,VWS V13.01,2013-01-14 23:00:00,
2013-01-14 18:01:00,63.0,62.1,30.06,WSW,241,0.0,0.0,97,0.00,,---,0.34,VWS V13.01,2013-01-14 23:01:00,
2013-01-14 18:02:00,63.0,62.1,30.06,WSW,241,0.0,0.0,97,0.00,,---,0.34,VWS V13.01,2013-01-14 23:02:00,
2013-01-14 18:05:00,63.0,62.1,30.06,WSW,241,0.0,0.0,97,0.01,,---,0.35,VWS V13.01,2013-01-14 23:05:00,
2013-01-14 18:06:00,63.0,62.1,30.06,WSW,241,0.0,0.0,97,0.01,,---,0.35,VWS V13.01,2013-01-14 23:06:00,
2013-01-14 18:07:00,63.0,62.1,30.06,WSW,241,0.0,0.0,97,0.01,,---,0.35,VWS V13.01,2013-01-14 23:07:00,
2013-01-14 18:10:00,62.9,62.0,30.06,WSW,241,0.0,0.0,97,0.02,,---,0.36,VWS V13.01,2013-01-14 23:10:00,
2013-01-14 18:11:00,63.0,62.1,30.06,WSW,241,0.0,0.0,97,0.02,,---,0.36,VWS V13.01,2013-01-14 23:11:00,
2013-01-14 18:12:00,62.9,62.0,30.06,WSW,241,0.0,0.0,97,0.02,,---,0.36,VWS V13.01,2013-01-14 23:12:00,
2013-01-14 18:15:00,62.9,62.0,30.06,WSW,241,0.0,0.0,97,0.02,,---,0.36,VWS V13.01,2013-01-14 23:15:00,
2013-01-14 18:16:00,62.9,62.0,30.06,WSW,241,0.0,0.0,97,0.02,,---,0.36,VWS V13.01,2013-01-14 23:16:00,
2013-01-14 18:17:00,62.9,62.0,30.06,WSW,241,0.0,1.0,97,0.02,,---,0.36,VWS V13.01,2013-01-14 23:17:00,
2013-01-14 18:20:00,62.9,62.0,30.06,WSW,241,0.0,2.0,97,0.02,,---,0.36,VWS V13.01,2013-01-14 23:20:00,
2013-01-14 18:21:00,62.9,62.0,30.06,WSW,241,0.0,2.0,97,0.02,,---,0.36,VWS V13.01,2013-01-14 23:21:00,
2013-01-14 18:22:00,62.9,62.0,30.06,WSW,241,0.0,2.0,97,0.02,,---,0.36,VWS V13.01,2013-01-14 23:22:00,
2013-01-14 18:26:00,62.9,62.0,30.06,WSW,241,0.0,2.0,97,0.02,,---,0.36,VWS V13.01,2013-01-14 23:26:00,
2013-01-14 18:27:00,62.9,62.0,30.06,WSW,241,0.0,2.0,97,0.02,,---,0.36,VWS V13.01,2013-01-14 23:27:00,
2013-01-14 18:31:00,62.8,61.9,30.06,WSW,241,0.0,0.0,97,0.04,,---,0.38,VWS V13.01,2013-01-14 23:31:00,
2013-01-14 18:32:00,62.8,61.9,30.06,WSW,241,0.0,0.0,97,0.05,,---,0.39,VWS V13.01,2013-01-14 23:32:00,
2013-01-14 18:36:00,62.8,61.9,30.06,WSW,241,0.0,0.0,97,0.05,,---,0.39,VWS V13.01,2013-01-14 23:36:00,
2013-01-14 18:38:00,62.8,61.9,30.06,WSW,241,0.0,0.0,97,0.05,,---,0.39,VWS V13.01,2013-01-14 23:38:00,
2013-01-14 18:41:00,62.8,61.9,30.06,WSW,241,0.0,0.0,97,0.05,,---,0.39,VWS V13.01,2013-01-14 23:41:00,
2013-01-14 18:42:00,62.8,61.9,30.06,WSW,241,0.0,0.0,97,0.05,,---,0.39,VWS V13.01,2013-01-14 23:42:00,
2013-01-14 18:43:00,62.8,61.9,30.06,WSW,241,0.0,0.0,97,0.05,,---,0.39,VWS V13.01,2013-01-14 23:43:00,
2013-01-14 18:46:00,62.9,62.0,30.06,WSW,241,0.0,0.0,97,0.06,,---,0.40,VWS V13.01,2013-01-14 23:46:00,
2013-01-14 18:47:00,62.9,62.0,30.06,WSW,241,0.0,0.0,97,0.06,,---,0.40,VWS V13.01,2013-01-14 23:47:00,
2013-01-14 18:48:00,62.8,61.9,30.06,WSW,241,0.0,0.0,97,0.06,,---,0.40,VWS V13.01,2013-01-14 23:48:00,
2013-01-14 18:51:00,62.8,61.9,30.06,WSW,241,0.0,0.0,97,0.06,,---,0.40,VWS V13.01,2013-01-14 23:51:00,
2013-01-14 18:52:00,62.8,61.9,30.06,WSW,241,0.0,0.0,97,0.06,,---,0.40,VWS V13.01,2013-01-14 23:52:00,
2013-01-14 18:53:00,62.8,61.9,30.06,WSW,241,0.0,0.0,97,0.06,,---,0.40,VWS V13.01,2013-01-14 23:53:00,
2013-01-14 18:57:00,62.8,61.9,30.06,WSW,241,0.0,0.0,97,0.06,,---,0.40,VWS V13.01,2013-01-14 23:57:00,
2013-01-14 18:58:00,62.8,61.9,30.06,WSW,241,0.0,0.0,97,0.06,,---,0.40,VWS V13.01,2013-01-14 23:58:00,
2013-01-14 19:02:00,62.8,61.9,30.06,WSW,241,0.0,0.0,97,0.06,,---,0.40,VWS V13.01,2013-01-15 00:02:00,
2013-01-14 19:03:00,62.8,61.9,30.06,WSW,241,0.0,0.0,97,0.06,,---,0.40,VWS V13.01,2013-01-15 00:03:00,
2013-01-14 19:07:00,62.8,61.9,30.06,WSW,241,0.0,1.0,97,0.06,,---,0.40,VWS V13.01,2013-01-15 00:07:00,
2013-01-14 19:08:00,62.8,61.9,30.06,WSW,241,0.0,1.0,97,0.06,,---,0.40,VWS V13.01,2013-01-15 00:08:00,
2013-01-14 19:12:00,62.7,61.8,30.06,WSW,241,0.0,1.0,97,0.06,,---,0.40,VWS V13.01,2013-01-15 00:12:00,
2013-01-14 19:13:00,62.7,61.8,30.06,WSW,241,0.0,1.0,97,0.06,,---,0.40,VWS V13.01,2013-01-15 00:13:00,
2013-01-14 19:17:00,62.7,61.8,30.06,WSW,241,0.0,1.0,97,0.06,,---,0.40,VWS V13.01,2013-01-15 00:17:00,
2013-01-14 19:18:00,62.7,61.8,30.06,WSW,241,0.0,1.0,97,0.06,,---,0.40,VWS V13.01,2013-01-15 00:18:00,
2013-01-14 19:22:00,62.7,61.8,30.06,WSW,241,0.0,1.0,97,0.06,,---,0.40,VWS V13.01,2013-01-15 00:22:00,
2013-01-14 19:23:00,62.7,61.8,30.06,WSW,241,0.0,1.0,97,0.06,,---,0.40,VWS V13.01,2013-01-15 00:23:00,
2013-01-14 19:27:00,62.7,61.8,30.06,WSW,241,0.0,1.0,97,0.06,,---,0.40,VWS V13.01,2013-01-15 00:27:00,
2013-01-14 19:28:00,62.7,61.8,30.06,WSW,241,0.0,1.0,97,0.06,,---,0.40,VWS V13.01,2013-01-15 00:28:00,
2013-01-14 19:32:00,62.7,61.8,30.06,WSW,241,0.0,0.0,97,0.02,,---,0.40,VWS V13.01,2013-01-15 00:32:00,
2013-01-14 19:33:00,62.7,61.8,30.06,WSW,241,0.0,0.0,97,0.02,,---,0.40,VWS V13.01,2013-01-15 00:33:00,
2013-01-14 19:37:00,62.6,61.7,30.06,WSW,241,0.0,2.0,97,0.02,,---,0.40,VWS V13.01,2013-01-15 00:37:00,
2013-01-14 19:38:00,62.7,61.8,30.06,WSW,241,0.0,2.0,97,0.02,,---,0.40,VWS V13.01,2013-01-15 00:38:00,
2013-01-14 19:39:00,62.7,61.8,30.06,WSW,241,0.0,2.0,97,0.02,,---,0.40,VWS V13.01,2013-01-15 00:39:00,
2013-01-14 19:42:00,62.6,62.0,30.05,WSW,241,0.0,2.0,98,0.02,,---,0.40,VWS V13.01,2013-01-15 00:42:00,
2013-01-14 19:43:00,62.6,62.0,30.05,WSW,241,0.0,2.0,98,0.02,,---,0.40,VWS V13.01,2013-01-15 00:43:00,
2013-01-14 19:44:00,62.7,62.1,30.05,WSW,241,0.0,2.0,98,0.02,,---,0.40,VWS V13.01,2013-01-15 00:44:00,
2013-01-14 19:48:00,62.6,62.0,30.05,WSW,241,0.0,2.0,98,0.02,,---,0.40,VWS V13.01,2013-01-15 00:48:00,
2013-01-14 19:49:00,62.6,62.0,30.06,WSW,241,0.0,2.0,98,0.02,,---,0.40,VWS V13.01,2013-01-15 00:49:00,
2013-01-14 19:53:00,62.6,62.0,30.06,WSW,241,0.0,2.0,98,0.02,,---,0.40,VWS V13.01,2013-01-15 00:53:00,
2013-01-14 19:54:00,62.6,62.0,30.06,WSW,241,0.0,2.0,98,0.02,,---,0.40,VWS V13.01,2013-01-15 00:54:00,
2013-01-14 19:58:00,62.6,62.0,30.06,WSW,241,1.0,2.0,98,0.02,,---,0.40,VWS V13.01,2013-01-15 00:58:00,
2013-01-14 19:59:00,62.6,62.6,30.06,WSW,241,0.0,2.0,100,0.02,,---,0.40,VWS V13.01,2013-01-15 00:59:00,
2013-01-14 20:03:00,62.6,61.7,30.06,WSW,241,0.0,3.0,97,0.00,,---,0.40,VWS V13.01,2013-01-15 01:03:00,
2013-01-14 20:04:00,62.6,61.7,30.06,WSW,241,0.0,3.0,97,0.00,,---,0.40,VWS V13.01,2013-01-15 01:04:00,
2013-01-14 20:08:00,62.6,61.7,30.05,WSW,241,0.0,3.0,97,0.00,,---,0.40,VWS V13.01,2013-01-15 01:08:00,
2013-01-14 20:09:00,62.5,61.6,30.05,WSW,241,0.0,3.0,97,0.00,,---,0.40,VWS V13.01,2013-01-15 01:09:00,
2013-01-14 20:13:00,62.5,61.6,30.06,WSW,241,0.0,3.0,97,0.00,,---,0.40,VWS V13.01,2013-01-15 01:13:00,
2013-01-14 20:14:00,62.6,61.7,30.06,WSW,241,0.0,3.0,97,0.00,,---,0.40,VWS V13.01,2013-01-15 01:14:00,
2013-01-14 20:18:00,62.5,61.6,30.06,WSW,241,0.0,3.0,97,0.00,,---,0.40,VWS V13.01,2013-01-15 01:18:00,
2013-01-14 20:19:00,62.5,61.6,30.06,WSW,241,0.0,3.0,97,0.00,,---,0.41,VWS V13.01,2013-01-15 01:19:00,
2013-01-14 20:23:00,62.5,61.6,30.05,WSW,241,0.0,3.0,97,0.01,,---,0.41,VWS V13.01,2013-01-15 01:23:00,
2013-01-14 20:24:00,62.5,61.6,30.06,WSW,241,0.0,3.0,97,0.01,,---,0.41,VWS V13.01,2013-01-15 01:24:00,
2013-01-14 20:25:00,62.5,61.6,30.06,WSW,241,0.0,3.0,97,0.01,,---,0.41,VWS V13.01,2013-01-15 01:25:00,
2013-01-14 20:28:00,62.5,61.6,30.05,WSW,241,0.0,3.0,97,0.01,,---,0.41,VWS V13.01,2013-01-15 01:28:00,
2013-01-14 20:29:00,62.5,61.6,30.06,WSW,241,0.0,3.0,97,0.01,,---,0.41,VWS V13.01,2013-01-15 01:29:00,
2013-01-14 20:30:00,62.6,61.7,30.06,WSW,241,0.0,3.0,97,0.01,,---,0.41,VWS V13.01,2013-01-15 01:30:00,
2013-01-14 20:33:00,62.6,61.7,30.06,WSW,241,0.0,0.0,97,0.01,,---,0.41,VWS V13.01,2013-01-15 01:33:00,
2013-01-14 20:34:00,62.6,61.7,30.06,WSW,241,0.0,0.0,97,0.01,,---,0.41,VWS V13.01,2013-01-15 01:34:00,
2013-01-14 20:35:00,62.6,62.0,30.06,WSW,241,0.0,0.0,98,0.01,,---,0.41,VWS V13.01,2013-01-15 01:35:00,
2013-01-14 20:39:00,62.6,62.0,30.06,WSW,241,0.0,1.0,98,0.02,,---,0.42,VWS V13.01,2013-01-15 01:39:00,
2013-01-14 20:40:00,62.6,62.0,30.06,WSW,241,0.0,1.0,98,0.03,,---,0.43,VWS V13.01,2013-01-15 01:40:00,
2013-01-14 20:44:00,62.7,62.1,30.07,WSW,241,2.0,2.0,98,0.03,,---,0.43,VWS V13.01,2013-01-15 01:44:00,
2013-01-14 20:45:00,62.7,62.1,30.07,WSW,241,0.0,4.0,98,0.03,,---,0.43,VWS V13.01,2013-01-15 01:45:00,
2013-01-14 20:49:00,62.7,62.1,30.06,WSW,241,0.0,4.0,98,0.05,,---,0.45,VWS V13.01,2013-01-15 01:49:00,
2013-01-14 20:50:00,62.7,62.1,30.06,WSW,241,0.0,4.0,98,0.05,,---,0.46,VWS V13.01,2013-01-15 01:50:00,
2013-01-14 20:54:00,62.7,62.1,30.06,WSW,241,1.0,4.0,98,0.07,,---,0.47,VWS V13.01,2013-01-15 01:54:00,
2013-01-14 20:55:00,62.7,62.1,30.06,WSW,241,0.0,4.0,98,0.07,,---,0.47,VWS V13.01,2013-01-15 01:55:00,
2013-01-14 20:59:00,62.7,62.1,30.06,WSW,241,0.0,5.0,98,0.07,,---,0.47,VWS V13.01,2013-01-15 01:59:00,
2013-01-14 21:00:00,62.7,62.1,30.06,WSW,241,0.0,5.0,98,0.07,,---,0.47,VWS V13.01,2013-01-15 02:00:00,
2013-01-14 21:04:00,62.7,62.1,30.06,WSW,241,0.0,4.0,98,0.07,,---,0.47,VWS V13.01,2013-01-15 02:04:00,
2013-01-14 21:05:00,62.7,62.1,30.06,WSW,241,0.0,4.0,98,0.07,,---,0.47,VWS V13.01,2013-01-15 02:05:00,
2013-01-14 21:09:00,62.8,62.2,30.07,WSW,241,0.0,4.0,98,0.07,,---,0.47,VWS V13.01,2013-01-15 02:09:00,
2013-01-14 21:10:00,62.8,62.2,30.07,WSW,241,0.0,4.0,98,0.07,,---,0.47,VWS V13.01,2013-01-15 02:10:00,
2013-01-14 21:14:00,62.7,62.1,30.07,North,355,0.0,9.0,98,0.07,,---,0.47,VWS V13.01,2013-01-15 02:14:00,
2013-01-14 21:16:00,62.6,62.0,30.07,NNE,32,1.0,9.0,98,0.07,,---,0.47,VWS V13.01,2013-01-15 02:16:00,
2013-01-14 21:19:00,62.1,61.2,30.07,North,11,5.0,10.0,97,0.07,,---,0.47,VWS V13.01,2013-01-15 02:19:00,
2013-01-14 21:20:00,62.0,61.1,30.07,NNE,19,3.0,10.0,97,0.07,,---,0.47,VWS V13.01,2013-01-15 02:20:00,
2013-01-14 21:21:00,61.9,61.0,30.07,NNE,17,4.0,10.0,97,0.07,,---,0.47,VWS V13.01,2013-01-15 02:21:00,
2013-01-14 21:24:00,61.4,60.5,30.07,NNE,24,0.0,10.0,97,0.07,,---,0.47,VWS V13.01,2013-01-15 02:24:00,
2013-01-14 21:25:00,61.4,60.5,30.07,NNE,24,0.0,10.0,97,0.07,,---,0.47,VWS V13.01,2013-01-15 02:25:00,
2013-01-14 21:26:00,61.3,60.4,30.07,NNE,24,3.0,10.0,97,0.07,,---,0.47,VWS V13.01,2013-01-15 02:26:00,
2013-01-14 21:29:00,61.0,60.2,30.07,NNE,14,3.0,10.0,97,0.07,,---,0.47,VWS V13.01,2013-01-15 02:29:00,
2013-01-14 21:30:00,60.9,60.0,30.07,NNE,24,2.0,10.0,97,0.07,,---,0.47,VWS V13.01,2013-01-15 02:30:00,
2013-01-14 21:31:00,60.7,59.8,30.07,NNE,17,3.0,5.0,97,0.07,,---,0.47,VWS V13.01,2013-01-15 02:31:00,
2013-01-14 21:34:00,60.3,59.2,30.07,NNE,29,3.0,7.0,96,0.06,,---,0.47,VWS V13.01,2013-01-15 02:34:00,
2013-01-14 21:35:00,60.2,59.1,30.07,NNE,29,0.0,7.0,96,0.06,,---,0.47,VWS V13.01,2013-01-15 02:35:00,
2013-01-14 21:36:00,60.1,59.0,30.07,NNE,29,0.0,7.0,96,0.06,,---,0.47,VWS V13.01,2013-01-15 02:36:00,
2013-01-14 21:39:00,59.8,59.0,30.07,NNE,26,3.0,7.0,97,0.06,,---,0.47,VWS V13.01,2013-01-15 02:39:00,
2013-01-14 21:40:00,59.8,58.7,30.07,NNE,26,0.0,7.0,96,0.06,,---,0.47,VWS V13.01,2013-01-15 02:40:00,
2013-01-14 21:41:00,59.6,58.5,30.07,NNE,32,2.0,7.0,96,0.06,,---,0.47,VWS V13.01,2013-01-15 02:41:00,
2013-01-14 21:44:00,59.3,58.2,30.07,NE,53,2.0,8.0,96,0.06,,---,0.47,VWS V13.01,2013-01-15 02:44:00,
2013-01-14 21:45:00,59.3,58.2,30.06,NE,53,4.0,8.0,96,0.06,,---,0.47,VWS V13.01,2013-01-15 02:45:00,
2013-01-14 21:46:00,59.0,57.9,30.07,NE,53,3.0,8.0,96,0.06,,---,0.47,VWS V13.01,2013-01-15 02:46:00,
2013-01-14 21:49:00,59.0,57.9,30.07,NE,42,0.0,8.0,96,0.06,,---,0.47,VWS V13.01,2013-01-15 02:49:00,
2013-01-14 21:50:00,59.0,57.9,30.07,NE,42,0.0,8.0,96,0.06,,---,0.47,VWS V13.01,2013-01-15 02:50:00,
2013-01-14 21:51:00,58.9,57.8,30.07,NE,48,3.0,8.0,96,0.06,,---,0.47,VWS V13.01,2013-01-15 02:51:00,
2013-01-14 21:54:00,58.6,57.5,30.07,NE,49,2.0,9.0,96,0.06,,---,0.47,VWS V13.01,2013-01-15 02:54:00,
2013-01-14 21:55:00,58.6,57.5,30.07,NE,46,3.0,9.0,96,0.06,,---,0.47,VWS V13.01,2013-01-15 02:55:00,
2013-01-14 21:56:00,58.5,57.4,30.07,NE,36,0.0,9.0,96,0.06,,---,0.47,VWS V13.01,2013-01-15 02:56:00,
2013-01-14 21:59:00,58.3,57.2,30.08,NW,306,6.0,10.0,96,0.06,,---,0.47,VWS V13.01,2013-01-15 02:59:00,
2013-01-14 22:00:00,58.3,57.2,30.09,NW,317,3.0,10.0,96,0.06,,---,0.47,VWS V13.01,2013-01-15 03:00:00,
2013-01-14 22:01:00,58.2,57.1,30.09,North,5,13.0,13.0,96,0.06,,---,0.47,VWS V13.01,2013-01-15 03:01:00,
2013-01-14 22:04:00,57.9,56.8,30.08,North,360,1.0,14.0,96,0.00,,---,0.47,VWS V13.01,2013-01-15 03:04:00,
2013-01-14 22:05:00,57.9,56.8,30.07,ENE,70,5.0,14.0,96,0.00,,---,0.47,VWS V13.01,2013-01-15 03:05:00,
2013-01-14 22:06:00,57.8,56.7,30.07,SE,131,4.0,14.0,96,0.00,,---,0.47,VWS V13.01,2013-01-15 03:06:00,
2013-01-14 22:10:00,57.6,56.5,30.07,ENE,74,5.0,14.0,96,0.00,,---,0.47,VWS V13.01,2013-01-15 03:10:00,
2013-01-14 22:11:00,57.5,56.4,30.07,NE,52,4.0,14.0,96,0.00,,---,0.47,VWS V13.01,2013-01-15 03:11:00,
2013-01-14 22:15:00,57.4,56.3,30.07,NE,56,6.0,14.0,96,0.00,,---,0.47,VWS V13.01,2013-01-15 03:15:00,
2013-01-14 22:16:00,57.3,56.2,30.07,NE,42,3.0,14.0,96,0.00,,---,0.47,VWS V13.01,2013-01-15 03:16:00,
2013-01-14 22:20:00,57.1,56.0,30.07,NE,49,4.0,14.0,96,0.00,,---,0.47,VWS V13.01,2013-01-15 03:20:00,
2013-01-14 22:21:00,57.1,56.0,30.07,NE,41,3.0,14.0,96,0.00,,---,0.47,VWS V13.01,2013-01-15 03:21:00,
2013-01-14 22:22:00,57.1,56.0,30.07,NE,41,0.0,14.0,96,0.00,,---,0.47,VWS V13.01,2013-01-15 03:22:00,
2013-01-14 22:25:00,57.0,56.2,30.07,NE,40,0.0,14.0,97,0.00,,---,0.47,VWS V13.01,2013-01-15 03:25:00,
2013-01-14 22:26:00,56.9,56.1,30.07,ENE,57,4.0,14.0,97,0.00,,---,0.47,VWS V13.01,2013-01-15 03:26:00,
2013-01-14 22:27:00,56.9,56.1,30.07,ENE,64,5.0,14.0,97,0.00,,---,0.47,VWS V13.01,2013-01-15 03:27:00,
2013-01-14 22:30:00,56.8,56.0,30.07,NE,54,0.0,14.0,97,0.00,,---,0.47,VWS V13.01,2013-01-15 03:30:00,
2013-01-14 22:31:00,56.8,56.0,30.07,NE,48,4.0,6.0,97,0.00,,---,0.47,VWS V13.01,2013-01-15 03:31:00,
2013-01-14 22:32:00,56.8,56.0,30.07,NE,42,4.0,6.0,97,0.00,,---,0.47,VWS V13.01,2013-01-15 03:32:00,
2013-01-14 22:35:00,56.7,55.9,30.07,NE,40,3.0,10.0,97,0.00,,---,0.47,VWS V13.01,2013-01-15 03:35:00,
2013-01-14 22:37:00,56.7,55.6,30.07,NE,42,4.0,10.0,96,0.00,,---,0.47,VWS V13.01,2013-01-15 03:37:00,
2013-01-14 22:40:00,56.6,55.8,30.07,NE,42,0.0,10.0,97,0.00,,---,0.47,VWS V13.01,2013-01-15 03:40:00,
2013-01-14 22:41:00,56.6,55.8,30.07,NE,42,0.0,10.0,97,0.00,,---,0.47,VWS V13.01,2013-01-15 03:41:00,
2013-01-14 22:42:00,56.6,55.8,30.07,NE,42,0.0,10.0,97,0.00,,---,0.47,VWS V13.01,2013-01-15 03:42:00,
2013-01-14 22:45:00,56.5,55.7,30.08,NE,40,0.0,10.0,97,0.00,,---,0.47,VWS V13.01,2013-01-15 03:45:00,
2013-01-14 22:46:00,56.5,55.7,30.08,NE,40,3.0,10.0,97,0.00,,---,0.47,VWS V13.01,2013-01-15 03:46:00,
2013-01-14 22:47:00,56.5,55.7,30.08,NE,40,0.0,10.0,97,0.00,,---,0.47,VWS V13.01,2013-01-15 03:47:00,
2013-01-14 22:50:00,56.4,55.6,30.08,NNE,33,3.0,10.0,97,0.00,,---,0.47,VWS V13.01,2013-01-15 03:50:00,
2013-01-14 22:51:00,56.4,55.6,30.08,NNE,21,3.0,10.0,97,0.00,,---,0.47,VWS V13.01,2013-01-15 03:51:00,
2013-01-14 22:52:00,56.4,55.6,30.08,NNE,21,0.0,10.0,97,0.00,,---,0.47,VWS V13.01,2013-01-15 03:52:00,
2013-01-14 22:55:00,56.3,55.5,30.08,NE,45,4.0,10.0,97,0.00,,---,0.47,VWS V13.01,2013-01-15 03:55:00,
2013-01-14 22:56:00,56.3,55.5,30.08,NE,43,3.0,10.0,97,0.00,,---,0.47,VWS V13.01,2013-01-15 03:56:00,
2013-01-14 22:57:00,56.3,55.5,30.08,North,360,0.0,10.0,97,0.00,,---,0.47,VWS V13.01,2013-01-15 03:57:00,
2013-01-14 23:00:00,56.3,55.5,30.08,NE,38,7.0,11.0,97,0.00,,---,0.47,VWS V13.01,2013-01-15 04:00:00,
2013-01-14 23:01:00,56.2,55.4,30.09,NNE,29,2.0,7.0,97,0.00,,---,0.47,VWS V13.01,2013-01-15 04:01:00,
2013-01-14 23:02:00,56.2,55.4,30.09,NE,36,3.0,7.0,97,0.00,,---,0.47,VWS V13.01,2013-01-15 04:02:00,
2013-01-14 23:06:00,56.1,55.3,30.09,North,349,5.0,7.0,97,0.00,,---,0.47,VWS V13.01,2013-01-15 04:06:00,
2013-01-14 23:07:00,56.1,55.3,30.08,NE,42,5.0,7.0,97,0.00,,---,0.47,VWS V13.01,2013-01-15 04:07:00,
2013-01-14 23:11:00,56.0,55.2,30.08,NE,56,6.0,9.0,97,0.00,,---,0.47,VWS V13.01,2013-01-15 04:11:00,
2013-01-14 23:12:00,55.9,55.1,30.08,NE,44,6.0,10.0,97,0.00,,---,0.47,VWS V13.01,2013-01-15 04:12:00,
2013-01-14 23:16:00,55.8,55.0,30.09,NE,36,6.0,11.0,97,0.00,,---,0.47,VWS V13.01,2013-01-15 04:16:00,
2013-01-14 23:17:00,55.7,54.9,30.09,NE,37,4.0,11.0,97,0.00,,---,0.47,VWS V13.01,2013-01-15 04:17:00,
2013-01-14 23:18:00,55.7,54.9,30.09,NE,44,1.0,11.0,97,0.00,,---,0.47,VWS V13.01,2013-01-15 04:18:00,
2013-01-14 23:21:00,55.6,54.8,30.09,ENE,71,0.0,11.0,97,0.00,,---,0.47,VWS V13.01,2013-01-15 04:21:00,
2013-01-14 23:22:00,55.5,54.7,30.09,NE,53,4.0,11.0,97,0.00,,---,0.47,VWS V13.01,2013-01-15 04:22:00,
2013-01-14 23:23:00,55.5,54.4,30.09,NE,55,3.0,11.0,96,0.00,,---,0.47,VWS V13.01,2013-01-15 04:23:00,
2013-01-14 23:26:00,55.4,54.3,30.09,NE,55,2.0,11.0,96,0.00,,---,0.47,VWS V13.01,2013-01-15 04:26:00,
2013-01-14 23:27:00,55.3,54.2,30.09,ENE,74,9.0,11.0,96,0.00,,---,0.47,VWS V13.01,2013-01-15 04:27:00,
2013-01-14 23:29:00,55.3,54.2,30.09,ENE,61,3.0,12.0,96,0.00,,---,0.47,VWS V13.01,2013-01-15 04:29:00,
2013-01-14 23:31:00,55.2,54.1,30.09,NE,37,4.0,6.0,96,0.00,,---,0.47,VWS V13.01,2013-01-15 04:31:00,
2013-01-14 23:32:00,55.1,54.0,30.09,NNE,33,2.0,9.0,96,0.00,,---,0.47,VWS V13.01,2013-01-15 04:32:00,
2013-01-14 23:34:00,55.1,54.3,30.10,NE,43,8.0,9.0,97,0.00,,---,0.47,VWS V13.01,2013-01-15 04:34:00,
2013-01-14 23:36:00,55.0,54.2,30.10,North,350,3.0,9.0,97,0.00,,---,0.47,VWS V13.01,2013-01-15 04:36:00,
2013-01-14 23:37:00,55.0,54.2,30.10,NNE,31,8.0,11.0,97,0.00,,---,0.47,VWS V13.01,2013-01-15 04:37:00,
2013-01-14 23:39:00,54.9,54.1,30.11,NE,46,7.0,11.0,97,0.00,,---,0.47,VWS V13.01,2013-01-15 04:39:00,
2013-01-14 23:42:00,54.8,53.7,30.10,NNE,13,3.0,11.0,96,0.00,,---,0.47,VWS V13.01,2013-01-15 04:42:00,
2013-01-14 23:43:00,54.8,53.7,30.10,ENE,63,6.0,11.0,96,0.00,,---,0.47,VWS V13.01,2013-01-15 04:43:00,
2013-01-14 23:44:00,54.7,53.6,30.10,ENE,64,5.0,11.0,96,0.00,,---,0.47,VWS V13.01,2013-01-15 04:44:00,
2013-01-14 23:47:00,54.6,53.5,30.10,NNE,13,8.0,11.0,96,0.00,,---,0.47,VWS V13.01,2013-01-15 04:47:00,
2013-01-14 23:48:00,54.5,53.4,30.10,NNW,344,4.0,11.0,96,0.00,,---,0.47,VWS V13.01,2013-01-15 04:48:00,
2013-01-14 23:49:00,54.5,53.4,30.11,North,350,7.0,11.0,96,0.00,,---,0.47,VWS V13.01,2013-01-15 04:49:00,
2013-01-14 23:52:00,54.3,53.2,30.12,NNW,345,6.0,13.0,96,0.00,,---,0.47,VWS V13.01,2013-01-15 04:52:00,
2013-01-14 23:53:00,54.2,53.1,30.12,NNE,22,4.0,13.0,96,0.00,,---,0.47,VWS V13.01,2013-01-15 04:53:00,
2013-01-14 23:54:00,54.1,53.0,30.11,NE,55,13.0,13.0,96,0.00,,---,0.47,VWS V13.01,2013-01-15 04:54:00,
2013-01-14 23:57:00,53.9,52.8,30.11,NE,38,5.0,13.0,96,0.00,,---,0.47,VWS V13.01,2013-01-15 04:57:00,
2013-01-14 23:58:00,53.9,52.8,30.11,North,350,4.0,13.0,96,0.00,,---,0.47,VWS V13.01,2013-01-15 04:58:00,
2013-01-14 23:59:00,53.8,52.7,30.12,North,355,6.0,15.0,96,0.00,,---,0.47,VWS V13.01,2013-01-15 04:59:00,